DW4078 Weather Reports


Display with metric or nautical units.
time (UTC)temp
F
wind
direction
speed
MPH
gust
MPH
rain 1hr
in
rain 24hr
in
rain mn
in
humidity
%
barometer
mb
20260831094904 71 123 1.0 4.0 0.00 0.00 0.00 92 1018.6
20260831094824 71 124 1.0 4.0 0.00 0.00 0.00 92 1018.4
20260831094704 71 126 1.0 4.0 0.00 0.00 0.00 92 1018.5
20260831094603 71 125 1.0 4.0 0.00 0.00 0.00 92 1018.6
20260831094524 71 127 1.0 4.0 0.00 0.00 0.00 92 1018.4
20260831094403 71 126 1.0 3.0 0.00 0.00 0.00 92 1018.4
20260831094303 71 125 1.0 3.0 0.00 0.00 0.00 92 1018.7
20260831094204 71 128 1.0 4.0 0.00 0.00 0.00 92 1018.5
20260831094124 71 127 1.0 4.0 0.00 0.00 0.00 92 1018.4
20260831094003 71 127 1.0 4.0 0.00 0.00 0.00 92 1018.3
20260831093903 71 129 1.0 4.0 0.00 0.00 0.00 92 1018.6
20260831093803 71 127 1.0 4.0 0.00 0.00 0.00 92 1018.6
20260831093703 71 130 1.0 4.0 0.00 0.00 0.00 92 1018.5
20260831093604 71 130 1.0 4.0 0.00 0.00 0.00 92 1018.5
20260831093524 71 130 2.0 4.0 0.00 0.00 0.00 92 1018.5
20260831093403 71 132 2.0 4.0 0.00 0.00 0.00 92 1018.5
20260831093325 71 133 2.0 4.0 0.00 0.00 0.00 92 1018.6
20260831093203 71 129 1.0 4.0 0.00 0.00 0.00 92 1018.5
20260831093124 71 130 2.0 4.0 0.00 0.00 0.00 92 1018.6
20260831093003 71 131 1.0 4.0 0.00 0.00 0.00 92 1018.9
20260831092903 71 129 1.0 4.0 0.00 0.00 0.00 92 1018.6
20260831092804 71 130 1.0 4.0 0.00 0.00 0.00 92 1018.4
20260831092724 71 129 1.0 4.0 0.00 0.00 0.00 92 1018.7
20260831092625 71 128 1.0 4.0 0.00 0.00 0.00 92 1018.7
20260831092503 71 126 1.0 4.0 0.00 0.00 0.00 92 1018.5
20260831092403 71 123 1.0 4.0 0.00 0.00 0.00 92 1018.6
20260831092306 71 125 1.0 4.0 0.00 0.00 0.00 92 1018.6
20260831092204 71 129 1.0 4.0 0.00 0.00 0.00 92 1018.6
20260831092103 71 131 1.0 4.0 0.00 0.00 0.00 92 1018.6
20260831092004 71 133 1.0 4.0 0.00 0.00 0.00 92 1018.7
20260831091904 71 132 1.0 4.0 0.00 0.00 0.00 92 1018.5
20260831091803 71 136 1.0 4.0 0.00 0.00 0.00 92 1018.6
20260831091703 71 137 1.0 4.0 0.00 0.00 0.00 92 1018.7
20260831091603 71 138 1.0 4.0 0.00 0.00 0.00 92 1018.6
20260831091503 71 137 1.0 4.0 0.00 0.00 0.00 92 1018.9
20260831091403 71 135 1.0 4.0 0.00 0.00 0.00 92 1018.5
20260831091304 71 134 1.0 4.0 0.00 0.00 0.00 92 1018.6
20260831091204 71 135 1.0 4.0 0.00 0.00 0.00 92 1018.8
20260831091103 71 134 1.0 4.0 0.00 0.00 0.00 92 1018.6
20260831091024 71 134 1.0 4.0 0.00 0.00 0.00 92 1018.7
20260831090903 71 132 1.0 4.0 0.00 0.00 0.00 92 1018.6
20260831090803 71 128 1.0 4.0 0.00 0.00 0.00 92 1018.8
20260831090704 71 127 1.0 4.0 0.00 0.00 0.00 92 1018.6
20260831090603 71 127 1.0 4.0 0.00 0.00 0.00 92 1018.6
20260831090504 71 127 1.0 4.0 0.00 0.00 0.00 92 1018.8
20260831090404 70 128 1.0 4.0 0.00 0.00 0.00 92 1018.8
20260831090303 70 129 1.0 4.0 0.00 0.00 0.00 92 1018.6
20260831090225 70 129 1.0 4.0 0.00 0.00 0.00 92 1018.7
20260831090003 70 128 1.0 2.0 0.00 0.00 0.00 93 1018.6
20260831085903 70 132 1.0 2.0 0.00 0.00 0.00 93 1018.7
20260831085803 70 131 1.0 4.0 0.00 0.00 0.00 93 1018.8
20260831085724 70 132 1.0 4.0 0.00 0.00 0.00 93 1018.8
20260831085604 70 132 1.0 4.0 0.00 0.00 0.00 93 1018.7
20260831085503 70 132 1.0 4.0 0.00 0.00 0.00 93 1018.6
20260831085404 70 135 1.0 4.0 0.00 0.00 0.00 93 1018.6
20260831085306 70 135 1.0 4.0 0.00 0.00 0.00 93 1018.8
20260831085204 70 135 1.0 4.0 0.00 0.00 0.00 93 1018.7
20260831085103 70 134 1.0 4.0 0.00 0.00 0.00 93 1018.6
20260831085003 70 135 1.0 4.0 0.00 0.00 0.00 93 1018.5
20260831084904 70 133 1.0 4.0 0.00 0.00 0.00 93 1018.5
20260831084803 70 134 0.0 3.0 0.00 0.00 0.00 93 1018.6
20260831084703 70 136 1.0 3.0 0.00 0.00 0.00 93 1018.8
20260831084603 70 134 1.0 3.0 0.00 0.00 0.00 93 1018.7
20260831084524 70 133 1.0 3.0 0.00 0.00 0.00 93 1018.5
20260831084403 70 131 1.0 3.0 0.00 0.00 0.00 93 1018.5
20260831084304 70 127 0.0 3.0 0.00 0.00 0.00 93 1018.5
20260831084204 70 126 0.0 3.0 0.00 0.00 0.00 93 1018.6
20260831084104 70 130 1.0 3.0 0.00 0.00 0.00 93 1018.6
20260831084003 70 129 1.0 3.0 0.00 0.00 0.00 93 1018.5
20260831083904 70 128 1.0 3.0 0.00 0.00 0.00 93 1018.5
20260831083804 70 128 1.0 3.0 0.00 0.00 0.00 93 1018.6
20260831083703 70 125 1.0 3.0 0.00 0.00 0.00 93 1018.5
20260831083603 70 126 1.0 3.0 0.00 0.00 0.00 93 1018.5
20260831083503 70 129 1.0 3.0 0.00 0.00 0.00 93 1018.5
20260831083403 70 128 1.0 3.0 0.00 0.00 0.00 93 1018.7
20260831083304 70 125 1.0 3.0 0.00 0.00 0.00 93 1018.7
20260831083203 70 125 1.0 3.0 0.00 0.00 0.00 93 1018.6
20260831083124 70 124 1.0 3.0 0.00 0.00 0.00 93 1018.6
20260831083004 70 120 1.0 3.0 0.00 0.00 0.00 93 1018.6
20260831082904 70 122 1.0 3.0 0.00 0.00 0.00 93 1018.8
20260831082803 70 122 1.0 3.0 0.00 0.00 0.00 93 1018.7
20260831082704 70 123 1.0 3.0 0.00 0.00 0.00 93 1018.6
20260831082603 70 123 1.0 2.0 0.00 0.00 0.00 93 1018.6
20260831082504 70 116 0.0 2.0 0.00 0.00 0.00 93 1018.6
20260831082404 70 115 0.0 2.0 0.00 0.00 0.00 93 1018.6
20260831082324 70 114 0.0 2.0 0.00 0.00 0.00 93 1018.7
20260831082225 70 124 0.0 2.0 0.00 0.00 0.00 93 1018.4
20260831082103 70 127 0.0 2.0 0.00 0.00 0.00 93 1018.6
20260831082004 70 125 0.0 1.0 0.00 0.00 0.00 93 1018.6
20260831081903 70 125 0.0 1.0 0.00 0.00 0.00 93 1018.7
20260831081804 70 125 0.0 1.0 0.00 0.00 0.00 93 1018.6
20260831081704 70 123 0.0 1.0 0.00 0.00 0.00 93 1018.5
20260831081604 70 120 0.0 1.0 0.00 0.00 0.00 93 1018.6
20260831081504 70 123 0.0 2.0 0.00 0.00 0.00 93 1018.5
20260831081404 70 122 0.0 2.0 0.00 0.00 0.00 93 1018.6
20260831081324 70 120 0.0 2.0 0.00 0.00 0.00 93 1018.7
20260831081203 70 121 0.0 2.0 0.00 0.00 0.00 93 1018.5
20260831081104 70 120 0.0 2.0 0.00 0.00 0.00 93 1018.9
20260831081003 70 120 0.0 2.0 0.00 0.00 0.00 93 1018.7
20260831080904 70 120 0.0 2.0 0.00 0.00 0.00 93 1018.7
20260831080803 70 120 0.0 2.0 0.00 0.00 0.00 93 1018.6
20260831080703 70 121 0.0 2.0 0.00 0.00 0.00 93 1018.6
20260831080603 70 123 0.0 2.0 0.00 0.00 0.00 93 1018.6
20260831080524 70 120 0.0 1.0 0.00 0.00 0.00 93 1018.6
20260831080404 70 121 0.0 1.0 0.00 0.00 0.00 93 1018.5
20260831080303 70 123 0.0 1.0 0.00 0.00 0.00 93 1018.6
20260831080203 70 121 0.0 1.0 0.00 0.00 0.00 93 1018.6
20260831080003 70 122 0.0 1.0 0.00 0.00 0.00 93 1018.7
20260831075904 70 122 0.0 1.0 0.00 0.00 0.00 93 1018.5
20260831075804 70 122 0.0 1.0 0.00 0.00 0.00 93 1018.9
20260831075725 70 121 0.0 1.0 0.00 0.00 0.00 93 1018.6
20260831075603 70 123 0.0 2.0 0.00 0.00 0.00 93 1018.8
20260831075503 70 120 0.0 2.0 0.00 0.00 0.00 93 1018.5
20260831075404 70 119 0.0 2.0 0.00 0.00 0.00 93 1018.6
20260831075306 70 121 0.0 2.0 0.00 0.00 0.00 93 1018.7
20260831075224 70 123 0.0 2.0 0.00 0.00 0.00 93 1018.7
20260831075103 70 122 0.0 2.0 0.00 0.00 0.00 93 1018.8
20260831075003 70 122 0.0 2.0 0.00 0.00 0.00 93 1018.5
20260831074904 70 124 1.0 3.0 0.00 0.00 0.00 93 1018.7
20260831074803 70 124 1.0 3.0 0.00 0.00 0.00 93 1018.5
20260831074703 70 123 1.0 3.0 0.00 0.00 0.00 93 1018.6
20260831074603 70 123 1.0 3.0 0.00 0.00 0.00 93 1018.7
20260831074524 70 123 1.0 3.0 0.00 0.00 0.00 93 1018.6
20260831074403 70 125 1.0 3.0 0.00 0.00 0.00 93 1018.5
20260831074324 70 126 1.0 3.0 0.00 0.00 0.00 93 1018.5
20260831074224 70 126 1.0 3.0 0.00 0.00 0.00 93 1018.5
20260831074104 70 125 1.0 3.0 0.00 0.00 0.00 93 1018.5
20260831074003 70 125 1.0 3.0 0.00 0.00 0.00 93 1018.6
20260831073904 70 123 1.0 3.0 0.00 0.00 0.00 93 1018.4
20260831073804 70 121 1.0 3.0 0.00 0.00 0.00 93 1018.7
20260831073704 70 122 1.0 3.0 0.00 0.00 0.00 93 1018.6
20260831073603 70 123 1.0 3.0 0.00 0.00 0.00 93 1018.7
20260831073524 70 124 1.0 3.0 0.00 0.00 0.00 93 1018.5
20260831073403 70 124 1.0 3.0 0.00 0.00 0.00 93 1018.5
20260831073304 70 123 1.0 3.0 0.00 0.00 0.00 93 1018.7
20260831073203 70 123 1.0 3.0 0.00 0.00 0.00 93 1018.6
20260831073103 70 123 1.0 3.0 0.00 0.00 0.00 93 1018.6
20260831073003 70 123 1.0 3.0 0.00 0.00 0.00 93 1018.7
20260831072904 70 123 1.0 3.0 0.00 0.00 0.00 93 1018.7
20260831072803 70 126 1.0 3.0 0.00 0.00 0.00 93 1018.7
20260831072703 70 127 1.0 2.0 0.00 0.00 0.00 93 1018.7
20260831072624 70 124 0.0 2.0 0.00 0.00 0.00 93 1018.6
20260831072503 70 123 0.0 2.0 0.00 0.00 0.00 93 1018.7
20260831072404 70 116 0.0 1.0 0.00 0.00 0.00 93 1018.9
20260831072306 70 115 0.0 2.0 0.00 0.00 0.00 93 1018.8
20260831072203 70 118 0.0 2.0 0.00 0.00 0.00 93 1019.0
20260831072104 70 118 0.0 2.0 0.00 0.00 0.00 93 1018.9
20260831072003 70 121 1.0 2.0 0.00 0.00 0.00 93 1018.9
20260831071904 70 121 1.0 2.0 0.00 0.00 0.00 93 1018.8
20260831071825 70 121 0.0 2.0 0.00 0.00 0.00 93 1018.7
20260831071724 70 120 1.0 2.0 0.00 0.00 0.00 93 1018.9
20260831071603 70 120 0.0 2.0 0.00 0.00 0.00 93 1018.7
20260831071503 70 120 1.0 2.0 0.00 0.00 0.00 93 1019.0
20260831071403 70 124 1.0 2.0 0.00 0.00 0.00 93 1018.8
20260831071305 70 125 1.0 3.0 0.00 0.00 0.00 93 1018.9
20260831071203 70 124 1.0 3.0 0.00 0.00 0.00 93 1018.7
20260831071104 70 125 1.0 3.0 0.00 0.00 0.00 93 1018.8
20260831071003 70 124 0.0 3.0 0.00 0.00 0.00 93 1018.8
20260831070904 70 123 0.0 3.0 0.00 0.00 0.00 93 1018.7
20260831070803 70 122 0.0 3.0 0.00 0.00 0.00 93 1018.8
20260831070725 70 122 1.0 3.0 0.00 0.00 0.00 93 1018.8
20260831070625 70 122 1.0 3.0 0.00 0.00 0.00 93 1018.8
20260831070504 70 124 1.0 3.0 0.00 0.00 0.00 93 1018.8
20260831070404 70 123 1.0 3.0 0.00 0.00 0.00 93 1018.7
20260831070324 70 122 1.0 3.0 0.00 0.00 0.00 93 1018.9
20260831070204 70 119 1.0 3.0 0.00 0.00 0.00 93 1018.8
20260831070104 70 119 1.0 3.0 0.00 0.00 0.00 93 1018.9
20260831070003 70 119 1.0 3.0 0.00 0.00 0.00 93 1018.8
20260831065904 70 118 1.0 3.0 0.00 0.00 0.00 93 1018.8
20260831065804 70 121 1.0 3.0 0.00 0.00 0.00 93 1019.1
20260831065704 70 122 1.0 3.0 0.00 0.00 0.00 93 1019.0
20260831065603 70 123 1.0 3.0 0.00 0.00 0.00 93 1018.9
20260831065503 70 122 1.0 3.0 0.00 0.00 0.00 93 1018.9
20260831065403 70 122 1.0 3.0 0.00 0.00 0.00 93 1018.9
20260831065306 70 122 1.0 3.0 0.00 0.00 0.00 93 1018.9
20260831065203 70 124 1.0 3.0 0.00 0.00 0.00 93 1019.0
20260831065124 70 124 1.0 3.0 0.00 0.00 0.00 93 1018.9
20260831065003 70 127 1.0 3.0 0.00 0.00 0.00 93 1018.9
20260831064924 70 128 1.0 3.0 0.00 0.00 0.00 93 1019.0
20260831064803 70 127 1.0 3.0 0.00 0.00 0.00 93 1018.9
20260831064704 70 128 1.0 3.0 0.00 0.00 0.00 93 1019.2
20260831064603 70 126 1.0 3.0 0.00 0.00 0.00 93 1019.1
20260831064503 70 126 1.0 3.0 0.00 0.00 0.00 93 1019.1
20260831064404 70 124 1.0 3.0 0.00 0.00 0.00 93 1019.0
20260831064324 70 125 1.0 3.0 0.00 0.00 0.00 93 1019.0
20260831064203 70 126 1.0 3.0 0.00 0.00 0.00 93 1019.0
20260831064104 70 128 1.0 3.0 0.00 0.00 0.00 93 1019.1
20260831064024 70 128 1.0 3.0 0.00 0.00 0.00 93 1019.1
20260831063924 70 126 1.0 3.0 0.00 0.00 0.00 93 1019.1
20260831063803 70 128 0.0 3.0 0.00 0.00 0.00 93 1018.9
20260831063703 70 127 0.0 2.0 0.00 0.00 0.00 93 1019.1
20260831063603 70 129 0.0 2.0 0.00 0.00 0.00 93 1019.1
20260831063525 70 130 0.0 2.0 0.00 0.00 0.00 93 1019.0
20260831063404 70 132 0.0 2.0 0.00 0.00 0.00 93 1019.0
20260831063303 70 134 0.0 2.0 0.00 0.00 0.00 93 1019.2
20260831063224 70 131 0.0 2.0 0.00 0.00 0.00 93 1018.9
20260831063104 70 126 0.0 2.0 0.00 0.00 0.00 93 1019.3
20260831063025 70 136 0.0 3.0 0.00 0.00 0.00 93 1019.1
20260831062904 70 144 0.0 3.0 0.00 0.00 0.00 92 1019.0
20260831062803 70 140 0.0 3.0 0.00 0.00 0.00 92 1018.9
20260831062725 70 140 0.0 3.0 0.00 0.00 0.00 92 1019.1
20260831062603 70 140 0.0 3.0 0.00 0.00 0.00 92 1019.1
20260831062504 70 138 0.0 3.0 0.00 0.00 0.00 92 1019.0
20260831062404 70 137 0.0 3.0 0.00 0.00 0.00 92 1019.2
20260831062305 70 133 0.0 3.0 0.00 0.00 0.00 92 1019.0
20260831062203 70 133 1.0 3.0 0.00 0.00 0.00 92 1019.0
20260831062103 70 131 1.0 3.0 0.00 0.00 0.00 92 1019.2
20260831062003 70 122 0.0 2.0 0.00 0.00 0.00 92 1019.1
20260831061924 70 119 0.0 2.0 0.00 0.00 0.00 92 1019.1
20260831061825 70 123 0.0 3.0 0.00 0.00 0.00 92 1019.1
20260831061703 70 124 1.0 4.0 0.00 0.00 0.00 92 1019.0
20260831061624 70 124 1.0 4.0 0.00 0.00 0.00 92 1019.0
20260831061503 70 124 1.0 4.0 0.00 0.00 0.00 92 1019.2
20260831061404 70 125 1.0 4.0 0.00 0.00 0.00 92 1019.2
20260831061304 70 126 1.0 4.0 0.00 0.00 0.00 92 1019.1
20260831061224 70 134 1.0 6.0 0.00 0.00 0.00 92 1019.0
20260831061124 70 136 1.0 7.0 0.00 0.00 0.00 92 1019.0
20260831061004 70 136 2.0 7.0 0.00 0.00 0.00 92 1019.0
20260831060924 70 134 2.0 7.0 0.00 0.00 0.00 92 1019.0
20260831060804 70 133 2.0 7.0 0.00 0.00 0.00 92 1019.0
20260831060724 70 132 2.0 7.0 0.00 0.00 0.00 92 1019.1
20260831060604 70 133 2.0 7.0 0.00 0.00 0.00 92 1019.0
20260831060504 70 131 2.0 7.0 0.00 0.00 0.00 92 1018.9
20260831060424 70 132 3.0 7.0 0.00 0.00 0.00 92 1018.9
20260831060303 70 131 3.0 7.0 0.00 0.00 0.00 92 1018.8
20260831060204 70 128 3.0 7.0 0.00 0.00 0.00 92 1018.6
20260831060104 70 127 2.0 6.0 0.00 0.00 0.00 92 1018.9
20260831060004 70 125 2.0 6.0 0.00 0.00 0.00 92 1018.8
20260831055904 70 129 2.0 6.0 0.00 0.00 0.00 92 1019.0
20260831055804 70 132 2.0 6.0 0.00 0.00 0.00 92 1018.9
20260831055704 70 132 2.0 6.0 0.00 0.00 0.00 92 1018.9
20260831055603 70 135 2.0 6.0 0.00 0.00 0.00 92 1019.0
20260831055504 70 138 2.0 6.0 0.00 0.00 0.00 92 1019.0
20260831055403 70 137 2.0 6.0 0.00 0.00 0.00 92 1019.1
20260831055306 70 139 2.0 6.0 0.00 0.00 0.00 92 1019.1
20260831055225 70 140 2.0 6.0 0.00 0.00 0.00 92 1019.0
20260831055104 70 140 2.0 6.0 0.00 0.00 0.00 92 1019.1
20260831055003 70 140 2.0 6.0 0.00 0.00 0.00 92 1019.2
20260831054904 70 138 2.0 6.0 0.00 0.00 0.00 92 1019.0
20260831054803 70 132 2.0 6.0 0.00 0.00 0.00 92 1019.2
20260831054703 70 132 2.0 6.0 0.00 0.00 0.00 92 1019.0
20260831054624 70 129 2.0 6.0 0.00 0.00 0.00 92 1019.1
20260831054503 70 131 2.0 6.0 0.00 0.00 0.00 92 1019.2
20260831054403 70 130 2.0 6.0 0.00 0.00 0.00 92 1019.1
20260831054304 70 129 2.0 6.0 0.00 0.00 0.00 92 1019.3
20260831054204 70 128 2.0 6.0 0.00 0.00 0.00 92 1019.3
20260831054124 70 127 2.0 6.0 0.00 0.00 0.00 92 1019.2
20260831054003 70 129 2.0 4.0 0.00 0.00 0.00 92 1019.0
20260831053903 70 130 2.0 4.0 0.00 0.00 0.00 92 1019.2
20260831053806 70 130 2.0 4.0 0.00 0.00 0.00 92 1019.2
20260831053703 70 131 2.0 4.0 0.00 0.00 0.00 92 1019.4
20260831053604 70 132 2.0 4.0 0.00 0.00 0.00 92 1019.1
20260831053504 70 129 2.0 4.0 0.00 0.00 0.00 92 1019.2
20260831053403 70 131 2.0 4.0 0.00 0.00 0.00 92 1019.2
20260831053304 70 128 2.0 4.0 0.00 0.00 0.00 92 1019.3
20260831053224 70 128 2.0 4.0 0.00 0.00 0.00 92 1019.2
20260831053103 70 132 2.0 4.0 0.00 0.00 0.00 92 1019.4
20260831053003 70 130 2.0 4.0 0.00 0.00 0.00 92 1019.3
20260831052904 70 131 2.0 4.0 0.00 0.00 0.00 92 1019.4
20260831052803 70 135 2.0 4.0 0.00 0.00 0.00 92 1019.2
20260831052703 70 135 2.0 4.0 0.00 0.00 0.00 92 1019.2
20260831052603 70 127 2.0 4.0 0.00 0.00 0.00 92 1019.2
20260831052503 70 129 2.0 4.0 0.00 0.00 0.00 92 1019.2
20260831052403 70 128 2.0 4.0 0.00 0.00 0.00 92 1019.2
20260831052306 70 133 2.0 4.0 0.00 0.00 0.00 92 1019.0
20260831052203 70 132 2.0 7.0 0.00 0.00 0.00 92 1019.2
20260831052103 70 131 2.0 7.0 0.00 0.00 0.00 92 1019.3
20260831052004 70 130 2.0 7.0 0.00 0.00 0.00 92 1019.3
20260831051903 70 128 2.0 7.0 0.00 0.00 0.00 92 1019.3
20260831051803 70 125 2.0 7.0 0.00 0.00 0.00 92 1019.2
20260831051704 70 124 2.0 7.0 0.00 0.00 0.00 92 1019.3
20260831051603 70 129 2.0 7.0 0.00 0.00 0.00 92 1019.2
20260831051503 70 127 1.0 7.0 0.00 0.00 0.00 92 1019.1
20260831051403 70 126 1.0 7.0 0.00 0.00 0.00 92 1019.3
20260831051324 70 126 1.0 7.0 0.00 0.00 0.00 92 1019.1
20260831051203 70 123 1.0 4.0 0.00 0.00 0.00 92 1019.3
20260831051103 70 123 1.0 4.0 0.00 0.00 0.00 92 1019.3
20260831051003 70 122 1.0 4.0 0.00 0.00 0.00 92 1019.3
20260831050903 70 122 1.0 4.0 0.00 0.00 0.00 92 1019.3
20260831050803 70 122 1.0 4.0 0.00 0.00 0.00 92 1019.2
20260831050704 70 122 1.0 4.0 0.00 0.00 0.00 92 1019.4
20260831050625 70 122 1.0 4.0 0.00 0.00 0.00 92 1019.4
20260831050503 70 121 1.0 4.0 0.00 0.00 0.00 92 1019.3
20260831050404 70 121 1.0 4.0 0.00 0.00 0.00 92 1019.4
20260831050303 70 118 1.0 4.0 0.00 0.00 0.00 92 1019.4
20260831050224 70 115 1.0 4.0 0.00 0.00 0.00 92 1019.4
20260831050103 70 115 1.0 4.0 0.00 0.00 0.00 92 1019.7
20260831050004 70 119 1.0 4.0 0.00 0.00 0.00 92 1019.6
20260831045904 70 119 1.0 4.0 0.00 0.00 0.00 92 1019.4
20260831045803 70 117 1.0 4.0 0.00 0.00 0.00 92 1019.6
20260831045725 70 116 1.0 4.0 0.00 0.00 0.00 92 1019.6
20260831045604 70 114 1.0 4.0 0.00 0.00 0.00 92 1019.7
20260831045503 70 113 1.0 3.0 0.00 0.00 0.00 92 1019.4
20260831045403 70 113 1.0 3.0 0.00 0.00 0.00 92 1019.7
20260831045324 70 113 1.0 3.0 0.00 0.00 0.00 92 1019.7
20260831045224 70 114 1.0 3.0 0.00 0.00 0.00 92 1019.8
20260831045124 70 111 1.0 3.0 0.00 0.00 0.00 92 1019.7
20260831045003 70 108 1.0 3.0 0.00 0.00 0.00 92 1019.7
20260831044924 70 107 1.0 4.0 0.00 0.00 0.00 92 1019.6
20260831044804 70 108 1.0 4.0 0.00 0.00 0.00 92 1019.7
20260831044703 70 110 1.0 4.0 0.00 0.00 0.00 92 1019.6
20260831044625 70 110 1.0 4.0 0.00 0.00 0.00 92 1019.4
20260831044524 70 111 1.0 4.0 0.00 0.00 0.00 92 1019.4
20260831044404 70 112 1.0 4.0 0.00 0.00 0.00 92 1019.6
20260831044325 70 112 1.0 4.0 0.00 0.00 0.00 92 1019.8
20260831044204 70 111 1.0 4.0 0.00 0.00 0.00 92 1019.3
20260831044125 70 112 1.0 4.0 0.00 0.00 0.00 92 1019.4
20260831044003 70 111 1.0 4.0 0.00 0.00 0.00 92 1019.3
20260831043904 70 113 1.0 4.0 0.00 0.00 0.00 92 1019.6
20260831043804 70 110 1.0 4.0 0.00 0.00 0.00 92 1019.3
20260831043703 70 109 1.0 4.0 0.00 0.00 0.00 92 1019.7
20260831043604 70 108 1.0 4.0 0.00 0.00 0.00 92 1019.6
20260831043504 70 106 1.0 4.0 0.00 0.00 0.00 93 1019.6
20260831043424 70 107 1.0 4.0 0.00 0.00 0.00 92 1019.6
20260831043303 70 105 1.0 4.0 0.00 0.00 0.00 92 1019.7
20260831043204 70 105 1.0 4.0 0.00 0.00 0.00 92 1019.7
20260831043103 70 105 1.0 4.0 0.00 0.00 0.00 92 1019.7
20260831043004 70 106 1.0 4.0 0.00 0.00 0.00 92 1019.7
20260831042904 70 106 1.0 4.0 0.00 0.00 0.00 92 1019.8
20260831042803 70 108 1.0 4.0 0.00 0.00 0.00 92 1019.8
20260831042704 70 108 1.0 4.0 0.00 0.00 0.00 92 1019.9
20260831042603 70 109 0.0 4.0 0.00 0.00 0.00 92 1019.6
20260831042503 70 107 0.0 3.0 0.00 0.00 0.00 92 1019.6
20260831042403 70 104 0.0 3.0 0.00 0.00 0.00 92 1019.7
20260831042306 70 110 0.0 3.0 0.00 0.00 0.00 92 1019.9
20260831042204 70 114 0.0 1.0 0.00 0.00 0.00 92 1019.9
20260831042103 70 119 0.0 3.0 0.00 0.00 0.00 92 1019.9
20260831042003 70 121 1.0 4.0 0.00 0.00 0.00 92 1019.8
20260831041903 70 122 1.0 4.0 0.00 0.00 0.00 92 1019.9
20260831041804 70 121 1.0 4.0 0.00 0.00 0.00 92 1020.1
20260831041704 71 121 1.0 4.0 0.00 0.00 0.00 92 1020.0
20260831041603 71 122 1.0 4.0 0.00 0.00 0.00 92 1019.9
20260831041504 71 122 1.0 4.0 0.00 0.00 0.00 92 1020.0
20260831041404 71 122 1.0 4.0 0.00 0.00 0.00 92 1019.9
20260831041324 71 123 1.0 4.0 0.00 0.00 0.00 92 1019.9
20260831041203 71 124 1.0 4.0 0.00 0.00 0.00 92 1020.0
20260831041124 71 124 1.0 4.0 0.00 0.00 0.00 92 1020.1
20260831041003 71 122 0.0 3.0 0.00 0.00 0.00 92 1020.1
20260831040904 71 122 0.0 3.0 0.00 0.00 0.00 92 1019.9
20260831040825 70 123 1.0 3.0 0.00 0.00 0.00 92 1020.0
20260831040703 70 123 1.0 3.0 0.00 0.00 0.00 92 1020.1
20260831040604 70 123 0.0 3.0 0.00 0.00 0.00 92 1020.2
20260831040503 70 122 0.0 2.0 0.00 0.00 0.00 92 1020.1
20260831040404 70 122 0.0 2.0 0.00 0.00 0.00 92 1020.2
20260831040303 70 122 0.0 2.0 0.00 0.00 0.00 92 1020.0
20260831040204 70 121 0.0 2.0 0.00 0.00 0.00 92 1019.9
20260831040103 70 121 0.0 2.0 0.00 0.00 0.00 92 1020.0
20260831040005 70 120 0.0 2.0 0.00 0.00 0.00 92 1020.0
20260831035904 70 123 0.0 3.0 0.00 0.00 0.00 92 1019.8
20260831035825 71 120 0.0 3.0 0.00 0.00 0.00 92 1020.0
20260831035704 71 120 0.0 3.0 0.00 0.00 0.00 92 1019.9
20260831035604 71 120 0.0 3.0 0.00 0.00 0.00 92 1019.9
20260831035503 71 120 0.0 3.0 0.00 0.00 0.00 92 1019.9
20260831035425 71 120 0.0 3.0 0.00 0.00 0.00 92 1020.0
20260831035306 71 119 0.0 3.0 0.00 0.00 0.00 92 1019.8
20260831035224 71 117 0.0 3.0 0.00 0.00 0.00 92 1019.8
20260831035103 71 122 1.0 3.0 0.00 0.00 0.00 92 1019.8
20260831035003 71 120 1.0 4.0 0.00 0.00 0.00 92 1019.8
20260831034903 71 118 1.0 4.0 0.00 0.00 0.00 92 1019.9
20260831034803 71 117 1.0 4.0 0.00 0.00 0.00 92 1019.9
20260831034703 71 118 1.0 4.0 0.00 0.00 0.00 92 1019.8
20260831034603 71 118 1.0 4.0 0.00 0.00 0.00 92 1019.9
20260831034503 71 117 1.0 4.0 0.00 0.00 0.00 92 1019.9
20260831034403 71 118 1.0 6.0 0.00 0.00 0.00 92 1019.9
20260831034303 71 118 1.0 6.0 0.00 0.00 0.00 92 1019.9
20260831034203 71 118 1.0 6.0 0.00 0.00 0.00 92 1019.7
20260831034124 71 122 1.0 6.0 0.00 0.00 0.00 92 1019.8
20260831034004 71 121 1.0 7.0 0.00 0.00 0.00 92 1019.7
20260831033904 71 123 2.0 7.0 0.00 0.00 0.00 92 1019.7
20260831033803 71 126 2.0 7.0 0.00 0.00 0.00 92 1019.8
20260831033704 71 127 2.0 7.0 0.00 0.00 0.00 92 1019.6
20260831033603 71 127 2.0 7.0 0.00 0.00 0.00 92 1019.6
20260831033524 71 128 2.0 7.0 0.00 0.00 0.00 92 1019.7
20260831033403 71 128 2.0 7.0 0.00 0.00 0.00 92 1019.7
20260831033303 71 131 2.0 7.0 0.00 0.00 0.00 92 1019.6
20260831033204 71 131 2.0 7.0 0.00 0.00 0.00 92 1019.6
20260831033103 71 128 2.0 6.0 0.00 0.00 0.00 92 1019.4
20260831033003 71 129 2.0 6.0 0.00 0.00 0.00 92 1019.6
20260831032903 71 127 2.0 6.0 0.00 0.00 0.00 92 1019.6
20260831032804 71 124 2.0 6.0 0.00 0.00 0.00 92 1019.6
20260831032704 71 123 2.0 6.0 0.00 0.00 0.00 92 1019.7
20260831032603 71 124 2.0 6.0 0.00 0.00 0.00 92 1019.8
20260831032503 71 127 2.0 6.0 0.00 0.00 0.00 92 1019.6
20260831032403 71 130 2.0 6.0 0.00 0.00 0.00 92 1019.4
20260831032306 71 129 2.0 6.0 0.00 0.00 0.00 92 1019.8
20260831032203 71 129 2.0 6.0 0.00 0.00 0.00 92 1019.4
20260831032104 71 129 2.0 6.0 0.00 0.00 0.00 92 1019.6
20260831032024 71 131 2.0 6.0 0.00 0.00 0.00 92 1019.7
20260831031903 71 129 3.0 6.0 0.00 0.00 0.00 92 1019.6
20260831031803 71 130 3.0 6.0 0.00 0.00 0.00 92 1019.8
20260831031724 71 132 3.0 6.0 0.00 0.00 0.00 92 1019.6
20260831031624 71 130 3.0 6.0 0.00 0.00 0.00 92 1019.6
20260831031503 71 129 2.0 6.0 0.00 0.00 0.00 92 1019.7
20260831031403 71 128 2.0 6.0 0.00 0.00 0.00 92 1019.7
20260831031325 71 129 2.0 6.0 0.00 0.00 0.00 92 1019.6
20260831031203 71 128 2.0 6.0 0.00 0.00 0.00 92 1019.7
20260831031124 71 128 2.0 6.0 0.00 0.00 0.00 92 1019.8
20260831031004 71 124 2.0 4.0 0.00 0.00 0.00 92 1019.7
20260831030903 71 129 2.0 4.0 0.00 0.00 0.00 92 1019.8
20260831030803 71 129 2.0 4.0 0.00 0.00 0.00 92 1019.7
20260831030703 71 128 2.0 4.0 0.00 0.00 0.00 92 1019.8
20260831030603 71 128 2.0 4.0 0.00 0.00 0.00 92 1019.9
20260831030503 71 127 1.0 4.0 0.00 0.00 0.00 92 1020.0
20260831030425 71 125 1.0 4.0 0.00 0.00 0.00 92 1019.9
20260831030304 71 123 1.0 4.0 0.00 0.00 0.00 92 1019.8
20260831030203 71 125 1.0 4.0 0.00 0.00 0.00 92 1019.7
20260831030104 71 126 1.0 4.0 0.00 0.00 0.00 92 1020.0
20260831030003 71 128 1.0 4.0 0.00 0.00 0.00 92 1020.0
20260831025904 71 127 1.0 2.0 0.00 0.00 0.00 92 1020.1
20260831025803 71 128 0.0 2.0 0.00 0.00 0.00 92 1020.0
20260831025703 71 128 0.0 2.0 0.00 0.00 0.00 92 1020.1
20260831025604 71 130 0.0 2.0 0.00 0.00 0.00 92 1020.1
20260831025503 71 128 0.0 2.0 0.00 0.00 0.00 92 1020.0
20260831025404 71 128 0.0 2.0 0.00 0.00 0.00 92 1020.2
20260831025306 71 128 0.0 2.0 0.00 0.00 0.00 92 1020.2
20260831025203 71 128 0.0 2.0 0.00 0.00 0.00 92 1020.1
20260831025103 71 127 0.0 2.0 0.00 0.00 0.00 92 1020.3
20260831025004 71 0 0.0 0.0 0.00 0.00 0.00 92 1020.3
20260831024903 71 0 0.0 0.0 0.00 0.00 0.00 92 1020.2
20260831024803 71 0 0.0 0.0 0.00 0.00 0.00 92 1020.4
20260831024703 71 0 0.0 0.0 0.00 0.00 0.00 92 1020.2
20260831024624 71 0 0.0 0.0 0.00 0.00 0.00 92 1020.3
20260831024504 71 0 0.0 0.0 0.00 0.00 0.00 92 1020.2
20260831024403 71 0 0.0 0.0 0.00 0.00 0.00 92 1020.3
20260831024304 71 0 0.0 0.0 0.00 0.00 0.00 92 1020.2
20260831024204 71 0 0.0 0.0 0.00 0.00 0.00 92 1020.3
20260831024103 71 0 0.0 0.0 0.00 0.00 0.00 92 1020.2
20260831024003 71 0 0.0 0.0 0.00 0.00 0.00 92 1020.1
20260831023903 71 0 0.0 0.0 0.00 0.00 0.00 92 1020.2
20260831023803 71 0 0.0 0.0 0.00 0.00 0.00 92 1020.2
20260831023703 71 0 0.0 0.0 0.00 0.00 0.00 92 1020.0
20260831023603 71 0 0.0 0.0 0.00 0.00 0.00 92 1020.2
20260831023504 71 0 0.0 0.0 0.00 0.00 0.00 92 1020.1
20260831023403 71 130 0.0 1.0 0.00 0.00 0.00 92 1020.3
20260831023325 71 130 0.0 1.0 0.00 0.00 0.00 92 1020.2
20260831023203 71 130 0.0 1.0 0.00 0.00 0.00 92 1020.4
20260831023124 71 115 0.0 1.0 0.00 0.00 0.00 92 1020.4
20260831023004 71 109 0.0 1.0 0.00 0.00 0.00 92 1020.3
20260831022903 71 107 0.0 2.0 0.00 0.00 0.00 92 1020.3
20260831022803 71 101 0.0 2.0 0.00 0.00 0.00 92 1020.3
20260831022725 71 101 0.0 2.0 0.00 0.00 0.00 92 1020.2
20260831022604 71 104 0.0 2.0 0.00 0.00 0.00 92 1020.3
20260831022504 71 104 0.0 2.0 0.00 0.00 0.00 92 1020.3
20260831022425 71 103 0.0 2.0 0.00 0.00 0.00 92 1020.1
20260831022324 71 103 0.0 2.0 0.00 0.00 0.00 92 1020.3
20260831022224 71 103 0.0 2.0 0.00 0.00 0.00 92 1020.1
20260831022103 71 110 0.0 3.0 0.00 0.00 0.00 92 1020.3
20260831022003 71 112 0.0 3.0 0.00 0.00 0.00 92 1020.2
20260831021904 71 113 0.0 3.0 0.00 0.00 0.00 92 1020.2
20260831021804 71 118 0.0 3.0 0.00 0.00 0.00 92 1020.2
20260831021703 71 118 1.0 3.0 0.00 0.00 0.00 92 1020.2
20260831021603 71 116 1.0 3.0 0.00 0.00 0.00 92 1020.1
20260831021503 71 115 1.0 3.0 0.00 0.00 0.00 92 1020.3
20260831021424 71 117 1.0 3.0 0.00 0.00 0.00 92 1020.2
20260831021325 71 117 1.0 3.0 0.00 0.00 0.00 92 1020.1
20260831021204 71 116 1.0 3.0 0.00 0.00 0.00 92 1020.3
20260831021103 71 117 1.0 3.0 0.00 0.00 0.00 92 1020.2
20260831021024 71 119 1.0 6.0 0.00 0.00 0.00 92 1020.2
20260831020903 71 117 1.0 6.0 0.00 0.00 0.00 92 1020.3
20260831020803 71 117 1.0 6.0 0.00 0.00 0.00 92 1020.3
20260831020703 71 117 1.0 6.0 0.00 0.00 0.00 92 1020.5
20260831020603 71 118 1.0 6.0 0.00 0.00 0.00 92 1020.2
20260831020503 71 119 1.0 6.0 0.00 0.00 0.00 92 1020.3
20260831020403 71 120 1.0 6.0 0.00 0.00 0.00 92 1020.3
20260831020303 71 121 1.0 6.0 0.00 0.00 0.00 92 1020.3
20260831020204 71 121 1.0 6.0 0.00 0.00 0.00 92 1020.4
20260831020103 71 119 1.0 6.0 0.00 0.00 0.00 92 1020.3
20260831020025 71 116 1.0 2.0 0.00 0.00 0.00 92 1020.4
20260831015924 71 118 0.0 2.0 0.00 0.00 0.00 92 1020.3
20260831015804 71 119 0.0 2.0 0.00 0.00 0.00 92 1020.4
20260831015704 71 120 1.0 3.0 0.00 0.00 0.00 92 1020.5
20260831015603 71 121 1.0 3.0 0.00 0.00 0.00 92 1020.4
20260831015503 71 120 1.0 3.0 0.00 0.00 0.00 92 1020.5
20260831015424 71 121 1.0 3.0 0.00 0.00 0.00 92 1020.4
20260831015305 71 121 1.0 4.0 0.00 0.00 0.00 92 1020.5
20260831015204 71 121 1.0 4.0 0.00 0.00 0.00 92 1020.4
20260831015103 71 120 1.0 4.0 0.00 0.00 0.00 92 1020.2
20260831015003 71 120 1.0 4.0 0.00 0.00 0.00 92 1020.3
20260831014903 71 121 1.0 4.0 0.00 0.00 0.00 92 1020.1
20260831014804 71 121 2.0 4.0 0.00 0.00 0.00 92 1020.3
20260831014703 71 121 2.0 4.0 0.00 0.00 0.00 92 1020.4
20260831014604 71 121 2.0 4.0 0.00 0.00 0.00 92 1020.5
20260831014504 71 123 2.0 4.0 0.00 0.00 0.00 92 1020.5
20260831014403 71 123 2.0 4.0 0.00 0.00 0.00 92 1020.7
20260831014303 71 123 2.0 4.0 0.00 0.00 0.00 92 1020.4
20260831014203 71 123 1.0 4.0 0.00 0.00 0.00 92 1020.5
20260831014103 71 124 1.0 4.0 0.00 0.00 0.00 92 1020.5
20260831014004 71 125 1.0 4.0 0.00 0.00 0.00 92 1020.5
20260831013904 71 125 1.0 4.0 0.00 0.00 0.00 92 1020.4
20260831013804 71 127 1.0 4.0 0.00 0.00 0.00 92 1020.7
20260831013724 71 130 1.0 3.0 0.00 0.00 0.00 92 1020.5
20260831013624 71 132 0.0 3.0 0.00 0.00 0.00 92 1020.6
20260831013503 71 126 0.0 2.0 0.00 0.00 0.00 93 1020.7
20260831013404 71 130 0.0 2.0 0.00 0.00 0.00 93 1020.8
20260831013303 71 0 0.0 0.0 0.00 0.00 0.00 93 1020.7
20260831013203 71 0 0.0 0.0 0.00 0.00 0.00 93 1020.7
20260831013104 71 0 0.0 0.0 0.00 0.00 0.00 93 1020.7
20260831013024 71 0 0.0 0.0 0.00 0.00 0.00 93 1020.6
20260831012925 71 0 0.0 0.0 0.00 0.00 0.00 93 1020.6
20260831012803 71 0 0.0 0.0 0.00 0.00 0.00 93 1020.6
20260831012703 71 0 0.0 0.0 0.00 0.00 0.00 93 1020.9
20260831012603 71 0 0.0 0.0 0.00 0.00 0.00 93 1020.8
20260831012504 71 0 0.0 0.0 0.00 0.00 0.00 93 1020.6
20260831012403 71 0 0.0 0.0 0.00 0.00 0.00 93 1020.7
20260831012324 71 0 0.0 0.0 0.00 0.00 0.00 93 1020.5
20260831012203 71 0 0.0 0.0 0.00 0.00 0.00 93 1020.7
20260831012103 71 0 0.0 0.0 0.00 0.00 0.00 93 1020.6
20260831012003 71 0 0.0 0.0 0.00 0.00 0.00 93 1020.7
20260831011903 71 0 0.0 0.0 0.00 0.00 0.00 93 1020.6
20260831011825 71 0 0.0 0.0 0.00 0.00 0.00 93 1020.6
20260831011703 71 110 0.0 1.0 0.00 0.00 0.00 93 1020.7
20260831011603 71 110 0.0 1.0 0.00 0.00 0.00 93 1020.8
20260831011524 71 110 0.0 1.0 0.00 0.00 0.00 93 1020.5
20260831011403 71 110 0.0 1.0 0.00 0.00 0.00 93 1020.7
20260831011303 71 110 0.0 1.0 0.00 0.00 0.00 93 1020.7
20260831011204 71 110 0.0 1.0 0.00 0.00 0.00 93 1020.6
20260831011104 71 110 0.0 1.0 0.00 0.00 0.00 93 1020.5
20260831011004 71 110 0.0 1.0 0.00 0.00 0.00 93 1020.6
20260831010903 71 110 0.0 1.0 0.00 0.00 0.00 93 1020.8
20260831010804 71 0 0.0 0.0 0.00 0.00 0.00 93 1020.7
20260831010703 71 0 0.0 0.0 0.00 0.00 0.00 93 1020.6
20260831005306 71 0 0.0 0.0 0.00 0.00 0.00 93 1020.8
20260831005224 71 0 0.0 0.0 0.00 0.00 0.00 93 1020.6
20260831005125 71 0 0.0 0.0 0.00 0.00 0.00 93 1020.7
20260831005003 71 0 0.0 0.0 0.00 0.00 0.00 93 1020.7
20260831004903 71 0 0.0 0.0 0.00 0.00 0.00 93 1020.7
20260831004803 71 0 0.0 0.0 0.00 0.00 0.00 93 1020.7
20260831004703 71 0 0.0 0.0 0.00 0.00 0.00 93 1020.8
20260831004624 71 0 0.0 0.0 0.00 0.00 0.00 93 1020.6
20260831004525 71 0 0.0 0.0 0.00 0.00 0.00 93 1020.6
20260831004403 71 0 0.0 0.0 0.00 0.00 0.00 93 1020.7
20260831004303 71 0 0.0 0.0 0.00 0.00 0.00 93 1020.8
20260831004204 71 0 0.0 0.0 0.00 0.00 0.00 93 1020.5
20260831004124 71 0 0.0 0.0 0.00 0.00 0.00 93 1020.7
20260831004003 71 0 0.0 0.0 0.00 0.00 0.00 93 1020.6
20260831003903 71 0 0.0 0.0 0.00 0.00 0.00 93 1020.5
20260831003804 71 0 0.0 0.0 0.00 0.00 0.00 93 1020.5
20260831003703 71 0 0.0 0.0 0.00 0.00 0.00 93 1020.7
20260831003603 71 0 0.0 0.0 0.00 0.00 0.00 93 1020.6
20260831003504 71 0 0.0 0.0 0.00 0.00 0.00 93 1020.6
20260831003403 71 0 0.0 0.0 0.00 0.00 0.00 93 1020.6
20260831003303 71 0 0.0 0.0 0.00 0.00 0.00 93 1020.5
20260831003204 71 0 0.0 0.0 0.00 0.00 0.00 92 1020.4
20260831003103 71 0 0.0 0.0 0.00 0.00 0.00 92 1020.5
20260831003004 71 0 0.0 0.0 0.00 0.00 0.00 92 1020.5
20260831002904 71 0 0.0 0.0 0.00 0.00 0.00 92 1020.4
20260831002803 71 0 0.0 0.0 0.00 0.00 0.00 92 1020.5
20260831002703 71 0 0.0 0.0 0.00 0.00 0.00 92 1020.7
20260831002603 71 0 0.0 0.0 0.00 0.00 0.00 92 1020.6
20260831002504 71 0 0.0 0.0 0.00 0.00 0.00 92 1020.6
20260831002404 71 0 0.0 0.0 0.00 0.00 0.00 92 1020.3
20260831002306 71 0 0.0 0.0 0.00 0.00 0.00 92 1020.5
20260831002225 71 0 0.0 0.0 0.00 0.00 0.00 92 1020.4
20260831002103 71 0 0.0 0.0 0.00 0.00 0.00 92 1020.3
20260831002003 71 0 0.0 0.0 0.00 0.00 0.00 92 1020.4
20260831001903 71 0 0.0 0.0 0.00 0.00 0.00 92 1020.3
20260831001803 71 0 0.0 0.0 0.00 0.00 0.00 92 1020.5
20260831001703 71 0 0.0 0.0 0.00 0.00 0.00 92 1020.3
20260831001603 71 0 0.0 0.0 0.00 0.00 0.00 92 1020.3
20260831001525 71 0 0.0 0.0 0.00 0.00 0.00 92 1020.1
20260831001403 71 0 0.0 0.0 0.00 0.00 0.00 92 1020.0
20260831001303 71 0 0.0 0.0 0.00 0.00 0.00 92 1020.2
20260831001203 71 0 0.0 0.0 0.00 0.00 0.00 92 1020.1
20260831001103 71 0 0.0 0.0 0.00 0.00 0.00 92 1020.3
20260831001003 71 0 0.0 0.0 0.00 0.00 0.00 92 1020.2
20260831000903 71 0 0.0 0.0 0.00 0.00 0.00 92 1020.2
20260831000803 71 0 0.0 0.0 0.00 0.00 0.00 92 1020.1
20260831000704 72 0 0.0 0.0 0.00 0.00 0.00 92 1020.2
20260831000603 72 0 0.0 0.0 0.00 0.00 0.00 92 1020.2
20260831000504 72 0 0.0 0.0 0.00 0.00 0.00 92 1020.0
20260831000403 72 0 0.0 0.0 0.00 0.00 0.00 92 1020.2
20260831000325 72 0 0.0 0.0 0.00 0.00 0.00 91 1020.3
20260831000204 72 0 0.0 0.0 0.00 0.00 0.00 91 1020.1
20260831000125 72 0 0.0 0.0 0.00 0.00 0.00 91 1020.2
20260831000003 72 0 0.0 0.0 0.00 0.00 0.00 91 1020.2
20260830235903 72 0 0.0 0.0 0.00 0.00 0.00 91 1020.1
20260830235803 72 0 0.0 0.0 0.00 0.00 0.00 91 1020.0
20260830235704 72 0 0.0 0.0 0.00 0.00 0.00 91 1020.0
20260830235603 72 0 0.0 0.0 0.00 0.00 0.00 91 1020.1
20260830235503 72 0 0.0 0.0 0.00 0.00 0.00 91 1020.1
20260830235402 72 0 0.0 0.0 0.00 0.00 0.00 91 1019.8
20260830235305 72 0 0.0 0.0 0.00 0.00 0.00 91 1019.9
20260830235203 72 0 0.0 0.0 0.00 0.00 0.00 91 1019.8
20260830235103 72 0 0.0 0.0 0.00 0.00 0.00 91 1019.8
20260830235003 72 0 0.0 0.0 0.00 0.00 0.00 91 1019.7
20260830234904 72 0 0.0 0.0 0.00 0.00 0.00 91 1019.8
20260830234803 72 0 0.0 0.0 0.00 0.00 0.00 90 1019.9
20260830234724 72 0 0.0 0.0 0.00 0.00 0.00 90 1019.7
20260830234603 72 0 0.0 0.0 0.00 0.00 0.00 90 1019.7
20260830234503 72 0 0.0 0.0 0.00 0.00 0.00 90 1019.9
20260830234404 73 0 0.0 0.0 0.00 0.00 0.00 90 1020.0
20260830234303 73 0 0.0 0.0 0.00 0.00 0.00 90 1019.8
20260830234203 73 0 0.0 0.0 0.00 0.00 0.00 90 1020.0
20260830234124 73 0 0.0 0.0 0.00 0.00 0.00 90 1019.9
20260830234003 73 0 0.0 0.0 0.00 0.00 0.00 90 1019.7
20260830233903 73 0 0.0 0.0 0.00 0.00 0.00 90 1019.9
20260830233804 73 0 0.0 0.0 0.00 0.00 0.00 89 1019.7
20260830233703 73 0 0.0 0.0 0.00 0.00 0.00 89 1019.4
20260830233603 73 0 0.0 0.0 0.00 0.00 0.00 89 1019.7
20260830233503 73 0 0.0 0.0 0.00 0.00 0.00 89 1019.6
20260830233403 73 0 0.0 0.0 0.00 0.00 0.00 88 1019.6
20260830233303 73 0 0.0 0.0 0.00 0.00 0.00 88 1019.7
20260830233224 73 0 0.0 0.0 0.00 0.00 0.00 88 1019.6
20260830233103 73 0 0.0 0.0 0.00 0.00 0.00 87 1019.6
20260830233003 73 0 0.0 0.0 0.00 0.00 0.00 87 1019.6
20260830232902 73 0 0.0 0.0 0.00 0.00 0.00 88 1019.8
20260830232804 73 0 0.0 0.0 0.00 0.00 0.00 88 1019.7
20260830232703 73 0 0.0 0.0 0.00 0.00 0.00 88 1019.9
20260830232603 73 0 0.0 0.0 0.00 0.00 0.00 88 1019.8
20260830232504 73 0 0.0 0.0 0.00 0.00 0.00 88 1019.6
20260830232404 73 0 0.0 0.0 0.00 0.00 0.00 88 1019.6
20260830232305 73 0 0.0 0.0 0.00 0.00 0.00 88 1019.8
20260830232204 73 0 0.0 0.0 0.00 0.00 0.00 88 1019.8
20260830232104 73 0 0.0 0.0 0.00 0.00 0.00 88 1019.6
20260830232004 73 0 0.0 0.0 0.00 0.00 0.00 87 1019.6
20260830231904 73 0 0.0 0.0 0.00 0.00 0.00 87 1019.6
20260830231803 73 0 0.0 0.0 0.00 0.00 0.00 87 1019.6
20260830231724 73 0 0.0 0.0 0.00 0.00 0.00 87 1019.3
20260830231604 73 0 0.0 0.0 0.00 0.00 0.00 87 1019.7
20260830231503 73 0 0.0 0.0 0.00 0.00 0.00 88 1019.2
20260830231403 73 0 0.0 0.0 0.00 0.00 0.00 88 1019.6
20260830231303 73 0 0.0 0.0 0.00 0.00 0.00 88 1019.2
20260830231203 73 0 0.0 0.0 0.00 0.00 0.00 88 1019.2
20260830231103 73 0 0.0 0.0 0.00 0.00 0.00 88 1019.3
20260830231024 73 0 0.0 0.0 0.00 0.00 0.00 88 1019.3
20260830230903 74 0 0.0 0.0 0.00 0.00 0.00 88 1019.4
20260830230825 74 0 0.0 0.0 0.00 0.00 0.00 88 1019.4
20260830230704 74 0 0.0 0.0 0.00 0.00 0.00 87 1019.6
20260830230603 74 0 0.0 0.0 0.00 0.00 0.00 88 1019.7
20260830230503 74 0 0.0 0.0 0.00 0.00 0.00 88 1019.7
20260830230403 74 0 0.0 0.0 0.00 0.00 0.00 87 1019.6
20260830230304 74 0 0.0 0.0 0.00 0.00 0.00 87 1019.7
20260830230204 74 0 0.0 0.0 0.00 0.00 0.00 86 1019.4
20260830230104 74 0 0.0 0.0 0.00 0.00 0.00 87 1019.6
20260830230003 74 0 0.0 0.0 0.00 0.00 0.00 87 1019.4
20260830225903 74 0 0.0 0.0 0.00 0.00 0.00 87 1019.8
20260830225803 74 0 0.0 0.0 0.00 0.00 0.00 86 1019.3
20260830225703 74 0 0.0 0.0 0.00 0.00 0.00 85 1019.2
20260830225603 74 0 0.0 0.0 0.00 0.00 0.00 86 1019.3
20260830225503 74 0 0.0 0.0 0.00 0.00 0.00 87 1019.2
20260830225425 74 0 0.0 0.0 0.00 0.00 0.00 86 1019.1
20260830225305 74 0 0.0 0.0 0.00 0.00 0.00 86 1019.1
20260830225204 74 0 0.0 0.0 0.00 0.00 0.00 86 1019.2
20260830225103 74 0 0.0 0.0 0.00 0.00 0.00 86 1018.8
20260830225003 74 0 0.0 0.0 0.00 0.00 0.00 86 1019.2
20260830224903 74 0 0.0 0.0 0.00 0.00 0.00 86 1019.1
20260830224824 74 110 0.0 1.0 0.00 0.00 0.00 86 1019.1
20260830224703 74 109 0.0 2.0 0.00 0.00 0.00 86 1018.9
20260830224603 74 109 0.0 2.0 0.00 0.00 0.00 86 1019.1
20260830224524 74 109 0.0 2.0 0.00 0.00 0.00 86 1019.1
20260830224404 74 109 0.0 2.0 0.00 0.00 0.00 85 1019.2
20260830224303 74 109 0.0 2.0 0.00 0.00 0.00 84 1019.0
20260830224204 74 109 0.0 2.0 0.00 0.00 0.00 84 1018.9
20260830224103 74 109 0.0 2.0 0.00 0.00 0.00 85 1018.8
20260830224025 74 109 0.0 2.0 0.00 0.00 0.00 85 1018.8
20260830223903 74 109 0.0 2.0 0.00 0.00 0.00 86 1018.8
20260830223803 74 107 0.0 2.0 0.00 0.00 0.00 86 1018.8
20260830223703 74 0 0.0 0.0 0.00 0.00 0.00 86 1018.9
20260830223624 74 99 0.0 1.0 0.00 0.00 0.00 86 1018.9
20260830223503 74 85 0.0 1.0 0.00 0.00 0.00 85 1019.2
20260830223425 74 84 0.0 2.0 0.00 0.00 0.00 85 1018.9
20260830223303 74 84 0.0 2.0 0.00 0.00 0.00 85 1018.9
20260830223203 74 84 0.0 2.0 0.00 0.00 0.00 85 1019.3
20260830223104 74 84 0.0 2.0 0.00 0.00 0.00 84 1018.9
20260830223003 74 90 0.0 2.0 0.00 0.00 0.00 83 1019.1
20260830222903 74 90 0.0 2.0 0.00 0.00 0.00 83 1019.2
20260830222824 74 90 0.0 2.0 0.00 0.00 0.00 83 1018.9
20260830222703 75 101 0.0 2.0 0.00 0.00 0.00 83 1019.2
20260830222603 75 102 0.0 2.0 0.00 0.00 0.00 83 1019.1
20260830222504 75 112 0.0 2.0 0.00 0.00 0.00 83 1019.0
20260830222404 75 128 0.0 2.0 0.00 0.00 0.00 82 1018.8
20260830222324 75 128 0.0 2.0 0.00 0.00 0.00 83 1018.8
20260830222204 75 128 0.0 2.0 0.00 0.00 0.00 82 1018.8
20260830222103 75 128 0.0 2.0 0.00 0.00 0.00 81 1018.6
20260830222003 75 129 0.0 2.0 0.00 0.00 0.00 81 1018.8
20260830221903 75 125 0.0 2.0 0.00 0.00 0.00 81 1018.6
20260830221803 75 127 0.0 3.0 0.00 0.00 0.00 81 1018.6
20260830221703 75 125 0.0 3.0 0.00 0.00 0.00 81 1018.6
20260830221603 75 122 1.0 3.0 0.00 0.00 0.00 81 1018.5
20260830221504 75 121 1.0 4.0 0.00 0.00 0.00 81 1018.6
20260830221404 75 127 1.0 4.0 0.00 0.00 0.00 80 1018.5
20260830221303 75 126 1.0 4.0 0.00 0.00 0.00 81 1018.5
20260830221203 75 126 1.0 4.0 0.00 0.00 0.00 81 1018.5
20260830221125 75 125 2.0 4.0 0.00 0.00 0.00 81 1018.4
20260830221003 75 125 2.0 4.0 0.00 0.00 0.00 81 1018.5
20260830220903 75 126 1.0 4.0 0.00 0.00 0.00 81 1018.5
20260830220804 75 125 1.0 4.0 0.00 0.00 0.00 82 1018.3
20260830220702 75 125 1.0 4.0 0.00 0.00 0.00 81 1018.4
20260830220624 75 127 1.0 4.0 0.00 0.00 0.00 81 1018.4
20260830220503 75 131 1.0 6.0 0.00 0.00 0.00 81 1018.5
20260830220404 75 123 1.0 6.0 0.00 0.00 0.00 81 1018.3
20260830220303 75 120 1.0 6.0 0.00 0.00 0.00 81 1018.4
20260830220203 75 124 1.0 6.0 0.00 0.00 0.00 81 1018.4
20260830220003 75 125 1.0 6.0 0.00 0.00 0.00 81 1018.4
20260830215904 75 127 2.0 6.0 0.00 0.00 0.00 81 1018.5
20260830215803 75 131 2.0 8.0 0.00 0.00 0.00 81 1018.4
20260830215725 75 131 2.0 8.0 0.00 0.00 0.00 80 1018.3
20260830215603 76 132 2.0 8.0 0.00 0.00 0.00 81 1018.5
20260830215525 76 132 2.0 8.0 0.00 0.00 0.00 80 1018.5
20260830215403 76 133 2.0 8.0 0.00 0.00 0.00 81 1018.2
20260830215305 76 136 2.0 8.0 0.00 0.00 0.00 81 1018.3
20260830215202 76 137 1.0 8.0 0.00 0.00 0.00 80 1018.3
20260830215104 76 138 1.0 8.0 0.00 0.00 0.00 80 1018.4
20260830215003 76 138 1.0 8.0 0.00 0.00 0.00 81 1018.4
20260830214903 76 138 1.0 8.0 0.00 0.00 0.00 80 1018.5
20260830214824 76 131 1.0 4.0 0.00 0.00 0.00 81 1018.6
20260830214703 76 133 1.0 4.0 0.00 0.00 0.00 79 1018.6
20260830214603 77 127 0.0 3.0 0.00 0.00 0.00 79 1018.7
20260830214524 77 127 0.0 3.0 0.00 0.00 0.00 78 1018.6
20260830214403 77 125 0.0 3.0 0.00 0.00 0.00 78 1018.8
20260830214303 76 126 0.0 3.0 0.00 0.00 0.00 79 1018.9
20260830214203 76 127 1.0 3.0 0.00 0.00 0.00 79 1018.7
20260830214104 76 127 1.0 3.0 0.00 0.00 0.00 79 1018.9
20260830214024 76 125 1.0 3.0 0.00 0.00 0.00 78 1018.8
20260830213924 76 133 1.0 7.0 0.00 0.00 0.00 78 1018.9
20260830213803 76 131 1.0 7.0 0.00 0.00 0.00 79 1018.9
20260830213703 76 135 2.0 7.0 0.00 0.00 0.00 79 1018.9
20260830213602 76 135 2.0 7.0 0.00 0.00 0.00 79 1019.0
20260830213503 76 135 2.0 7.0 0.00 0.00 0.00 79 1019.0
20260830213403 76 136 2.0 7.0 0.00 0.00 0.00 79 1018.9
20260830213303 76 137 2.0 7.0 0.00 0.00 0.00 79 1019.1
20260830213204 76 138 2.0 7.0 0.00 0.00 0.00 79 1018.9
20260830213103 76 139 2.0 7.0 0.00 0.00 0.00 79 1018.7
20260830213004 76 141 2.0 7.0 0.00 0.00 0.00 78 1018.8
20260830212924 76 137 1.0 4.0 0.00 0.00 0.00 79 1018.8
20260830212803 76 137 1.0 4.0 0.00 0.00 0.00 78 1018.9
20260830212703 77 133 1.0 4.0 0.00 0.00 0.00 78 1018.8
20260830212604 77 131 1.0 3.0 0.00 0.00 0.00 78 1018.9
20260830212504 77 129 1.0 3.0 0.00 0.00 0.00 77 1019.1
20260830212402 77 129 1.0 3.0 0.00 0.00 0.00 77 1019.0
20260830212305 77 124 1.0 3.0 0.00 0.00 0.00 77 1018.9
20260830212203 77 123 1.0 3.0 0.00 0.00 0.00 78 1018.9
20260830212125 77 124 1.0 3.0 0.00 0.00 0.00 78 1019.0
20260830212004 76 123 1.0 3.0 0.00 0.00 0.00 78 1019.0
20260830211904 76 122 1.0 3.0 0.00 0.00 0.00 79 1019.0
20260830211803 76 124 1.0 3.0 0.00 0.00 0.00 79 1018.8
20260830211703 76 125 1.0 3.0 0.00 0.00 0.00 80 1018.9
20260830211603 76 129 1.0 3.0 0.00 0.00 0.00 80 1019.1
20260830211525 76 130 1.0 3.0 0.00 0.00 0.00 80 1019.1
20260830211403 76 132 1.0 3.0 0.00 0.00 0.00 80 1019.1
20260830211304 75 132 1.0 3.0 0.00 0.00 0.00 81 1019.2
20260830211204 75 132 1.0 3.0 0.00 0.00 0.00 81 1019.2
20260830211103 75 133 1.0 3.0 0.00 0.00 0.00 80 1019.0
20260830211004 75 133 1.0 3.0 0.00 0.00 0.00 81 1019.1
20260830210903 75 131 1.0 3.0 0.00 0.00 0.00 81 1019.3
20260830210804 75 130 1.0 3.0 0.00 0.00 0.00 80 1019.1
20260830210703 75 131 1.0 3.0 0.00 0.00 0.00 80 1019.1
20260830210603 75 128 1.0 3.0 0.00 0.00 0.00 79 1019.0
20260830210504 75 123 1.0 3.0 0.00 0.00 0.00 80 1019.3
20260830210404 75 123 1.0 3.0 0.00 0.00 0.00 80 1019.2
20260830210303 75 120 0.0 3.0 0.00 0.00 0.00 80 1018.9
20260830210225 75 116 0.0 3.0 0.00 0.00 0.00 80 1019.1
20260830210024 75 120 0.0 3.0 0.00 0.00 0.00 80 1019.0
20260830205904 76 122 0.0 2.0 0.00 0.00 0.00 80 1019.0
20260830205803 76 121 0.0 2.0 0.00 0.00 0.00 79 1019.2
20260830205704 76 121 0.0 2.0 0.00 0.00 0.00 79 1019.1
20260830205624 76 122 0.0 2.0 0.00 0.00 0.00 79 1019.2
20260830205504 76 123 0.0 2.0 0.00 0.00 0.00 80 1019.2
20260830205404 76 123 0.0 2.0 0.00 0.00 0.00 80 1019.2
20260830205306 76 124 0.0 2.0 0.00 0.00 0.00 78 1019.0
20260830205203 76 130 0.0 2.0 0.00 0.00 0.00 79 1019.4
20260830205103 76 139 0.0 2.0 0.00 0.00 0.00 79 1019.3
20260830205004 76 142 0.0 3.0 0.00 0.00 0.00 79 1019.2
20260830204903 76 137 0.0 3.0 0.00 0.00 0.00 79 1019.3
20260830204803 76 135 1.0 3.0 0.00 0.00 0.00 78 1019.2
20260830204724 76 135 1.0 3.0 0.00 0.00 0.00 79 1019.3
20260830204604 76 134 1.0 3.0 0.00 0.00 0.00 80 1019.6
20260830204503 75 134 1.0 3.0 0.00 0.00 0.00 80 1019.4
20260830204404 75 135 1.0 3.0 0.00 0.00 0.00 79 1019.4
20260830204303 75 135 1.0 3.0 0.00 0.00 0.00 80 1019.1
20260830204203 75 135 1.0 3.0 0.00 0.00 0.00 80 1019.1
20260830204103 75 133 1.0 3.0 0.00 0.00 0.00 79 1019.2
20260830204003 76 131 1.0 3.0 0.00 0.00 0.00 78 1019.3
20260830203924 76 127 0.0 3.0 0.00 0.00 0.00 79 1019.4
20260830203803 76 132 1.0 4.0 0.00 0.00 0.00 79 1019.2
20260830203703 76 128 1.0 4.0 0.00 0.00 0.00 79 1019.3
20260830203603 76 126 1.0 4.0 0.00 0.00 0.00 78 1019.3
20260830203503 76 125 1.0 4.0 0.00 0.00 0.00 79 1019.3
20260830203403 76 124 1.0 4.0 0.00 0.00 0.00 80 1019.6
20260830203303 75 124 1.0 4.0 0.00 0.00 0.00 81 1019.2
20260830203203 75 123 1.0 4.0 0.00 0.00 0.00 81 1019.4
20260830203104 75 123 1.0 4.0 0.00 0.00 0.00 81 1019.3
20260830203003 75 123 1.0 4.0 0.00 0.00 0.00 81 1019.2
20260830202903 75 122 1.0 4.0 0.00 0.00 0.00 80 1019.1
20260830202804 76 122 1.0 7.0 0.00 0.00 0.00 79 1019.1
20260830202704 76 124 1.0 7.0 0.00 0.00 0.00 79 1019.1
20260830202603 76 124 1.0 7.0 0.00 0.00 0.00 79 1019.2
20260830202504 75 125 1.0 7.0 0.00 0.00 0.00 80 1019.2
20260830202403 75 127 1.0 7.0 0.00 0.00 0.00 80 1019.1
20260830202305 75 125 2.0 7.0 0.00 0.00 0.00 81 1019.1
20260830202224 75 125 2.0 7.0 0.00 0.00 0.00 81 1019.1
20260830202103 74 126 2.0 7.0 0.00 0.00 0.00 82 1019.0
20260830202003 74 126 2.0 7.0 0.00 0.00 0.00 82 1019.2
20260830201903 74 125 2.0 7.0 0.00 0.00 0.00 82 1019.1
20260830201803 74 124 2.0 6.0 0.00 0.00 0.00 82 1019.1
20260830201703 74 127 2.0 6.0 0.00 0.00 0.00 83 1019.1
20260830201604 74 129 2.0 6.0 0.00 0.00 0.00 82 1019.1
20260830201504 74 128 2.0 6.0 0.00 0.00 0.00 83 1019.0
20260830201404 74 129 2.0 6.0 0.00 0.00 0.00 83 1019.1
20260830201325 74 130 2.0 6.0 0.00 0.00 0.00 83 1019.2
20260830201203 74 134 2.0 4.0 0.00 0.00 0.00 82 1019.2
20260830201103 74 133 1.0 4.0 0.00 0.00 0.00 82 1019.1
20260830201003 74 133 1.0 4.0 0.00 0.00 0.00 82 1019.2
20260830200903 74 132 2.0 4.0 0.00 0.00 0.00 83 1019.3
20260830200803 74 130 1.0 4.0 0.00 0.00 0.00 81 1019.3
20260830200704 74 126 1.0 4.0 0.00 0.00 0.00 82 1019.4
20260830200603 74 128 2.0 4.0 0.00 0.00 0.00 81 1019.6
20260830200504 74 130 2.0 4.0 0.00 0.00 0.00 81 1019.3
20260830200403 74 129 2.0 4.0 0.00 0.00 0.00 81 1019.6
20260830200304 74 131 2.0 4.0 0.00 0.00 0.00 81 1019.4
20260830200204 74 131 2.0 4.0 0.00 0.00 0.00 81 1019.4
20260830200103 74 132 2.0 4.0 0.00 0.00 0.00 81 1019.6
20260830200004 74 135 2.0 4.0 0.00 0.00 0.00 80 1019.4
20260830195904 74 138 2.0 4.0 0.00 0.00 0.00 81 1019.6
20260830195804 74 140 2.0 4.0 0.00 0.00 0.00 81 1019.7
20260830195704 74 140 2.0 4.0 0.00 0.00 0.00 81 1019.6
20260830195603 74 139 2.0 4.0 0.00 0.00 0.00 80 1019.4
20260830195503 74 138 2.0 4.0 0.00 0.00 0.00 80 1019.9
20260830195403 74 138 2.0 4.0 0.00 0.00 0.00 80 1019.6
20260830195305 74 137 1.0 4.0 0.00 0.00 0.00 81 1019.7
20260830195203 74 137 1.0 4.0 0.00 0.00 0.00 80 1019.9
20260830195125 74 136 1.0 4.0 0.00 0.00 0.00 80 1020.0
20260830195004 74 133 1.0 3.0 0.00 0.00 0.00 81 1019.9
20260830194904 74 130 1.0 3.0 0.00 0.00 0.00 83 1019.8
20260830194804 74 131 1.0 3.0 0.00 0.00 0.00 82 1019.9
20260830194703 74 133 1.0 3.0 0.00 0.00 0.00 81 1019.8
20260830194603 74 131 0.0 3.0 0.00 0.00 0.00 82 1019.8
20260830194504 74 135 0.0 3.0 0.00 0.00 0.00 83 1019.9
20260830194403 75 128 0.0 2.0 0.00 0.00 0.00 83 1019.7
20260830194303 75 127 0.0 2.0 0.00 0.00 0.00 82 1019.8
20260830194203 74 128 0.0 2.0 0.00 0.00 0.00 84 1020.0
20260830194103 74 129 1.0 4.0 0.00 0.00 0.00 83 1020.0
20260830194004 74 122 1.0 4.0 0.00 0.00 0.00 83 1020.2
20260830193903 74 125 1.0 4.0 0.00 0.00 0.00 83 1020.1
20260830193824 74 125 1.0 4.0 0.00 0.00 0.00 83 1020.0
20260830193725 74 124 1.0 4.0 0.00 0.00 0.00 83 1020.1
20260830193603 74 123 1.0 4.0 0.00 0.00 0.00 82 1020.2
20260830193524 74 119 1.0 4.0 0.00 0.00 0.00 82 1020.0
20260830193404 74 121 1.0 4.0 0.00 0.00 0.00 82 1020.3
20260830193303 74 123 1.0 4.0 0.00 0.00 0.00 82 1020.1
20260830193204 74 123 1.0 4.0 0.00 0.00 0.00 81 1020.1
20260830193103 75 121 1.0 4.0 0.00 0.00 0.00 81 1020.1
20260830193003 75 128 0.0 3.0 0.00 0.00 0.00 80 1020.1
20260830192925 75 125 0.0 3.0 0.00 0.00 0.00 81 1020.1
20260830192803 75 129 1.0 3.0 0.00 0.00 0.00 80 1020.1
20260830192704 75 130 1.0 3.0 0.00 0.00 0.00 80 1020.0
20260830192603 75 136 1.0 3.0 0.00 0.00 0.00 79 1020.2
20260830192524 75 139 1.0 3.0 0.00 0.00 0.00 79 1020.0
20260830192424 75 142 1.0 3.0 0.00 0.00 0.00 78 1020.2
20260830192305 75 147 1.0 3.0 0.00 0.00 0.00 79 1020.2
20260830192203 75 144 1.0 3.0 0.00 0.00 0.00 79 1020.2
20260830192103 75 144 1.0 3.0 0.00 0.00 0.00 78 1020.1
20260830192003 75 144 1.0 3.0 0.00 0.00 0.00 78 1020.1
20260830191925 75 144 1.0 3.0 0.00 0.00 0.00 78 1020.3
20260830191804 75 146 1.0 3.0 0.00 0.00 0.00 78 1020.2
20260830191704 76 146 1.0 3.0 0.00 0.00 0.00 77 1020.2
20260830191603 76 145 1.0 3.0 0.00 0.00 0.00 77 1020.3
20260830191503 76 143 1.0 3.0 0.00 0.00 0.00 77 1020.4
20260830191424 76 142 1.0 3.0 0.00 0.00 0.00 76 1020.3
20260830191304 76 139 0.0 2.0 0.00 0.00 0.00 76 1020.5
20260830191203 76 144 0.0 2.0 0.00 0.00 0.00 76 1020.3
20260830191103 76 144 0.0 2.0 0.00 0.00 0.00 76 1020.4
20260830191004 76 144 0.0 2.0 0.00 0.00 0.00 76 1020.4
20260830190904 76 151 0.0 2.0 0.00 0.00 0.00 76 1020.4
20260830190825 76 151 0.0 2.0 0.00 0.00 0.00 75 1020.3
20260830190703 76 151 0.0 2.0 0.00 0.00 0.00 75 1020.4
20260830190603 76 149 0.0 2.0 0.00 0.00 0.00 75 1020.6
20260830190503 76 145 0.0 2.0 0.00 0.00 0.00 74 1020.5
20260830190404 76 131 0.0 1.0 0.00 0.00 0.00 74 1020.6
20260830190303 76 143 0.0 2.0 0.00 0.00 0.00 75 1020.5
20260830190204 76 140 0.0 2.0 0.00 0.00 0.00 76 1020.7
20260830190104 76 132 0.0 2.0 0.00 0.00 0.00 75 1020.6
20260830190003 76 105 0.0 2.0 0.00 0.00 0.00 77 1020.7
20260830185903 76 86 1.0 2.0 0.00 0.00 0.00 76 1020.6
20260830185803 76 73 1.0 3.0 0.00 0.00 0.00 76 1020.5
20260830185703 76 63 1.0 3.0 0.00 0.00 0.00 75 1020.8
20260830185604 76 61 1.0 3.0 0.00 0.00 0.00 75 1020.5
20260830185503 75 67 1.0 3.0 0.00 0.00 0.00 75 1020.7
20260830185404 75 61 1.0 3.0 0.00 0.00 0.00 75 1020.7
20260830185306 75 55 1.0 3.0 0.00 0.00 0.00 76 1020.7
20260830185203 75 52 1.0 3.0 0.00 0.00 0.00 76 1020.6
20260830185103 75 50 1.0 3.0 0.00 0.00 0.00 77 1020.7
20260830185004 75 46 1.0 3.0 0.00 0.00 0.00 76 1020.9
20260830184904 76 46 1.0 3.0 0.00 0.00 0.00 76 1020.8
20260830184803 76 62 0.0 3.0 0.00 0.00 0.00 75 1021.0
20260830184704 76 84 0.0 2.0 0.00 0.00 0.00 74 1020.9
20260830184604 76 101 0.0 2.0 0.00 0.00 0.00 75 1020.9
20260830184524 77 116 0.0 2.0 0.00 0.00 0.00 75 1020.8
20260830184403 77 132 0.0 2.0 0.00 0.00 0.00 74 1020.9
20260830184303 77 139 0.0 2.0 0.00 0.00 0.00 73 1021.0
20260830184225 77 136 0.0 2.0 0.00 0.00 0.00 72 1020.9
20260830184125 77 136 0.0 2.0 0.00 0.00 0.00 72 1021.1
20260830184003 77 138 0.0 2.0 0.00 0.00 0.00 73 1020.8
20260830183903 76 145 0.0 3.0 0.00 0.00 0.00 74 1021.0
20260830183804 76 168 1.0 4.0 0.00 0.00 0.00 74 1020.9
20260830183703 76 183 1.0 4.0 0.00 0.00 0.00 75 1021.1
20260830183603 76 183 1.0 4.0 0.00 0.00 0.00 73 1020.9
20260830183524 76 177 1.0 4.0 0.00 0.00 0.00 75 1020.9
20260830183425 76 183 1.0 4.0 0.00 0.00 0.00 74 1021.1
20260830183325 76 186 1.0 4.0 0.00 0.00 0.00 76 1021.2
20260830183204 76 178 1.0 4.0 0.00 0.00 0.00 76 1021.1
20260830183103 76 173 1.0 4.0 0.00 0.00 0.00 75 1020.9
20260830183024 76 169 1.0 4.0 0.00 0.00 0.00 75 1021.1
20260830182904 76 154 1.0 4.0 0.00 0.00 0.00 73 1021.0
20260830182804 76 116 1.0 3.0 0.00 0.00 0.00 74 1021.0
20260830182704 76 103 1.0 3.0 0.00 0.00 0.00 76 1021.1
20260830182604 76 102 1.0 3.0 0.00 0.00 0.00 76 1021.2
20260830182525 76 95 1.0 3.0 0.00 0.00 0.00 76 1021.0
20260830182404 76 93 1.0 3.0 0.00 0.00 0.00 75 1021.1
20260830182324 76 91 1.0 3.0 0.00 0.00 0.00 76 1021.1
20260830182204 76 93 0.0 3.0 0.00 0.00 0.00 76 1021.2
20260830182104 76 96 1.0 3.0 0.00 0.00 0.00 77 1021.0
20260830182003 76 100 1.0 3.0 0.00 0.00 0.00 76 1021.0
20260830181903 76 101 1.0 3.0 0.00 0.00 0.00 76 1021.1
20260830181803 76 97 1.0 3.0 0.00 0.00 0.00 76 1021.1
20260830181703 76 94 0.0 3.0 0.00 0.00 0.00 76 1021.1
20260830181603 76 94 0.0 3.0 0.00 0.00 0.00 78 1021.0
20260830181524 76 92 0.0 3.0 0.00 0.00 0.00 78 1021.1
20260830181404 76 91 0.0 3.0 0.00 0.00 0.00 77 1021.2
20260830181304 76 92 0.0 3.0 0.00 0.00 0.00 77 1021.1
20260830181203 76 96 0.0 3.0 0.00 0.00 0.00 78 1021.0
20260830181103 76 101 0.0 2.0 0.00 0.00 0.00 78 1021.1
20260830181004 76 98 0.0 2.0 0.00 0.00 0.00 78 1021.0
20260830180903 76 94 1.0 2.0 0.00 0.00 0.00 79 1021.3
20260830180803 76 96 1.0 2.0 0.00 0.00 0.00 79 1021.3
20260830180703 75 95 1.0 2.0 0.00 0.00 0.00 79 1021.1
20260830180603 75 94 1.0 2.0 0.00 0.00 0.00 77 1021.3
20260830180525 75 93 1.0 2.0 0.00 0.00 0.00 78 1021.4
20260830180403 75 96 1.0 2.0 0.00 0.00 0.00 81 1021.1
20260830180325 75 95 1.0 2.0 0.00 0.00 0.00 81 1021.3
20260830180203 74 92 1.0 2.0 0.00 0.00 0.00 81 1021.3
20260830180104 74 93 1.0 2.0 0.00 0.00 0.00 82 1021.4
20260830180003 74 99 1.0 2.0 0.00 0.00 0.00 81 1021.2
20260830175903 74 104 1.0 2.0 0.00 0.00 0.00 82 1021.3
20260830175803 74 105 1.0 2.0 0.00 0.00 0.00 81 1021.2
20260830175704 74 104 1.0 2.0 0.00 0.00 0.00 82 1021.2
20260830175603 74 107 0.0 2.0 0.00 0.00 0.00 81 1021.4
20260830175524 74 110 0.0 2.0 0.00 0.00 0.00 81 1021.2
20260830175403 75 106 0.0 2.0 0.00 0.00 0.00 80 1021.2
20260830175306 75 112 0.0 2.0 0.00 0.00 0.00 80 1021.3
20260830175203 74 110 0.0 2.0 0.00 0.00 0.00 81 1021.3
20260830175125 74 108 0.0 2.0 0.00 0.00 0.00 80 1021.2
20260830175003 74 99 0.0 2.0 0.00 0.00 0.00 78 1021.3
20260830174903 74 99 0.0 2.0 0.00 0.00 0.00 80 1021.3
20260830174824 74 99 0.0 2.0 0.00 0.00 0.00 79 1021.3
20260830174703 74 98 0.0 2.0 0.00 0.00 0.00 78 1021.5
20260830174603 74 98 0.0 2.0 0.00 0.00 0.00 77 1021.2
20260830174524 74 99 0.0 2.0 0.00 0.00 0.00 77 1021.4
20260830174404 75 101 0.0 2.0 0.00 0.00 0.00 78 1021.4
20260830174324 75 101 0.0 2.0 0.00 0.00 0.00 77 1021.1
20260830174203 75 99 0.0 2.0 0.00 0.00 0.00 79 1021.2
20260830174124 75 103 0.0 1.0 0.00 0.00 0.00 79 1021.2
20260830174003 75 104 0.0 1.0 0.00 0.00 0.00 80 1021.4
20260830173903 75 104 0.0 1.0 0.00 0.00 0.00 79 1021.4
20260830173803 75 104 0.0 1.0 0.00 0.00 0.00 81 1021.3
20260830173704 75 106 0.0 1.0 0.00 0.00 0.00 80 1021.3
20260830173604 74 120 0.0 1.0 0.00 0.00 0.00 79 1021.4
20260830173504 74 120 0.0 1.0 0.00 0.00 0.00 79 1021.4
20260830173403 74 123 0.0 1.0 0.00 0.00 0.00 80 1021.2
20260830173303 74 131 0.0 1.0 0.00 0.00 0.00 81 1021.4
20260830173225 74 133 0.0 1.0 0.00 0.00 0.00 82 1021.5
20260830173104 74 147 0.0 2.0 0.00 0.00 0.00 82 1021.4
20260830173003 74 145 0.0 2.0 0.00 0.00 0.00 83 1021.4
20260830172902 74 143 0.0 2.0 0.00 0.00 0.00 81 1021.6
20260830172803 74 143 0.0 2.0 0.00 0.00 0.00 81 1021.3
20260830172704 74 143 1.0 2.0 0.00 0.00 0.00 80 1021.2
20260830172603 74 140 0.0 2.0 0.00 0.00 0.00 81 1021.3
20260830172503 74 142 1.0 2.0 0.00 0.00 0.00 80 1021.3
20260830172404 74 143 1.0 2.0 0.00 0.00 0.00 80 1021.6
20260830172306 74 140 1.0 2.0 0.00 0.00 0.00 80 1021.7
20260830172204 74 137 1.0 2.0 0.00 0.00 0.00 80 1021.4
20260830172104 74 143 1.0 3.0 0.00 0.00 0.00 80 1021.5
20260830172004 74 155 1.0 3.0 0.00 0.00 0.00 81 1021.4
20260830171904 74 160 1.0 3.0 0.00 0.00 0.00 81 1021.4
20260830171803 74 160 1.0 3.0 0.00 0.00 0.00 80 1021.5
20260830171703 74 159 1.0 3.0 0.00 0.00 0.00 81 1021.7
20260830171603 74 162 1.0 3.0 0.00 0.00 0.00 80 1021.5
20260830171503 74 162 1.0 3.0 0.00 0.00 0.00 80 1021.6
20260830171424 74 161 1.0 3.0 0.00 0.00 0.00 81 1021.6
20260830171304 74 157 1.0 3.0 0.00 0.00 0.00 81 1021.8
20260830171224 74 161 1.0 3.0 0.00 0.00 0.00 80 1021.6
20260830171104 74 157 1.0 3.0 0.00 0.00 0.00 80 1021.7
20260830171003 74 157 1.0 3.0 0.00 0.00 0.00 80 1021.7
20260830170903 74 160 1.0 3.0 0.00 0.00 0.00 81 1021.6
20260830170803 74 160 1.0 3.0 0.00 0.00 0.00 80 1021.7
20260830170703 74 165 1.0 4.0 0.00 0.00 0.00 81 1021.8
20260830170603 74 169 1.0 4.0 0.00 0.00 0.00 81 1021.6
20260830170503 74 167 1.0 4.0 0.00 0.00 0.00 81 1021.7
20260830170403 74 167 1.0 4.0 0.00 0.00 0.00 80 1022.0
20260830170303 74 175 1.0 4.0 0.00 0.00 0.00 81 1021.6
20260830170224 73 177 1.0 4.0 0.00 0.00 0.00 81 1021.7
20260830170104 73 174 2.0 4.0 0.00 0.00 0.00 81 1021.8
20260830170004 73 173 2.0 4.0 0.00 0.00 0.00 81 1021.8
20260830165903 73 169 1.0 4.0 0.00 0.00 0.00 81 1021.9
20260830165824 73 170 2.0 4.0 0.00 0.00 0.00 81 1021.8
20260830165704 73 177 1.0 3.0 0.00 0.00 0.00 82 1021.9
20260830165624 73 172 1.0 3.0 0.00 0.00 0.00 82 1021.9
20260830165503 73 173 1.0 3.0 0.00 0.00 0.00 82 1021.9
20260830165403 73 175 1.0 3.0 0.00 0.00 0.00 82 1021.8
20260830165306 73 163 1.0 3.0 0.00 0.00 0.00 81 1021.8
20260830165203 73 160 1.0 3.0 0.00 0.00 0.00 82 1021.8
20260830165104 73 161 1.0 3.0 0.00 0.00 0.00 82 1022.0
20260830165024 73 161 1.0 3.0 0.00 0.00 0.00 82 1022.1
20260830164904 73 167 1.0 3.0 0.00 0.00 0.00 82 1021.8
20260830164803 73 180 1.0 3.0 0.00 0.00 0.00 82 1021.7
20260830164725 73 168 1.0 2.0 0.00 0.00 0.00 82 1021.9
20260830164603 74 158 1.0 2.0 0.00 0.00 0.00 81 1022.0
20260830164503 74 158 1.0 2.0 0.00 0.00 0.00 83 1022.1
20260830164404 73 159 1.0 2.0 0.00 0.00 0.00 84 1021.9
20260830164303 73 165 1.0 2.0 0.00 0.00 0.00 82 1022.0
20260830164203 73 169 1.0 2.0 0.00 0.00 0.00 82 1022.1
20260830164103 73 173 1.0 2.0 0.00 0.00 0.00 82 1022.0
20260830164003 73 161 0.0 2.0 0.00 0.00 0.00 83 1022.1
20260830163924 73 167 0.0 2.0 0.00 0.00 0.00 82 1021.9
20260830163824 73 139 0.0 2.0 0.00 0.00 0.00 82 1022.1
20260830163703 73 139 0.0 2.0 0.00 0.00 0.00 82 1022.2
20260830163625 73 138 0.0 2.0 0.00 0.00 0.00 82 1022.1
20260830163504 73 142 0.0 2.0 0.00 0.00 0.00 82 1022.1
20260830163404 73 142 0.0 2.0 0.00 0.00 0.00 83 1022.0
20260830163304 73 144 0.0 2.0 0.00 0.00 0.00 83 1022.0
20260830163225 73 144 0.0 2.0 0.00 0.00 0.00 82 1022.3
20260830163124 73 144 0.0 2.0 0.00 0.00 0.00 83 1022.3
20260830163004 73 151 0.0 2.0 0.00 0.00 0.00 83 1022.2
20260830162904 73 141 0.0 2.0 0.00 0.00 0.00 82 1022.4
20260830162803 73 142 0.0 2.0 0.00 0.00 0.00 82 1022.1
20260830162724 73 127 0.0 2.0 0.00 0.00 0.00 81 1022.3
20260830162604 73 93 0.0 2.0 0.00 0.00 0.00 83 1021.9
20260830162503 73 93 0.0 2.0 0.00 0.00 0.00 81 1022.0
20260830162403 73 93 0.0 2.0 0.00 0.00 0.00 83 1022.1
20260830162306 73 93 0.0 2.0 0.00 0.00 0.00 82 1022.0
20260830162203 73 93 0.0 2.0 0.00 0.00 0.00 84 1022.0
20260830162103 73 93 0.0 2.0 0.00 0.00 0.00 84 1022.0
20260830162024 73 93 0.0 2.0 0.00 0.00 0.00 85 1022.2
20260830161904 73 0 0.0 0.0 0.00 0.00 0.00 86 1022.1
20260830161803 72 0 0.0 0.0 0.00 0.00 0.00 86 1022.1
20260830161704 72 0 0.0 0.0 0.00 0.00 0.00 86 1022.1
20260830161603 72 0 0.0 0.0 0.00 0.00 0.00 86 1022.0
20260830161504 73 0 0.0 0.0 0.00 0.00 0.00 87 1022.1
20260830161425 73 0 0.0 0.0 0.00 0.00 0.00 86 1021.9
20260830161303 73 0 0.0 0.0 0.00 0.00 0.00 87 1022.2
20260830161203 73 0 0.0 0.0 0.00 0.00 0.00 87 1022.1
20260830161103 73 0 0.0 0.0 0.00 0.00 0.00 86 1022.0
20260830161004 72 0 0.0 0.0 0.00 0.00 0.00 87 1022.1
20260830160903 72 0 0.0 0.0 0.00 0.00 0.00 86 1022.1
20260830160803 72 0 0.0 0.0 0.00 0.00 0.00 85 1021.9
20260830160703 72 0 0.0 0.0 0.00 0.00 0.00 85 1021.9
20260830160604 72 0 0.0 0.0 0.00 0.00 0.00 87 1021.9
20260830160503 72 0 0.0 0.0 0.00 0.00 0.00 87 1022.0
20260830160425 72 0 0.0 0.0 0.00 0.00 0.00 86 1022.1
20260830160324 72 0 0.0 0.0 0.00 0.00 0.00 86 1022.0
20260830160204 72 0 0.0 0.0 0.00 0.00 0.00 87 1021.9
20260830160124 72 0 0.0 0.0 0.00 0.00 0.00 87 1022.0
20260830160004 72 0 0.0 0.0 0.00 0.00 0.00 89 1022.1
20260830155905 72 0 0.0 0.0 0.00 0.00 0.00 89 1021.9
20260830155803 72 0 0.0 0.0 0.00 0.00 0.00 89 1022.1
20260830155704 72 0 0.0 0.0 0.00 0.00 0.00 89 1022.1
20260830155603 72 0 0.0 0.0 0.00 0.00 0.00 89 1021.8
20260830155503 72 0 0.0 0.0 0.00 0.00 0.00 89 1022.0
20260830155403 72 0 0.0 0.0 0.00 0.00 0.00 89 1022.0
20260830155306 72 0 0.0 0.0 0.00 0.00 0.00 89 1022.1
20260830155204 72 0 0.0 0.0 0.00 0.00 0.00 89 1022.1
20260830155103 72 0 0.0 0.0 0.00 0.00 0.00 89 1021.9
20260830155003 72 0 0.0 0.0 0.00 0.00 0.00 89 1022.1
20260830154904 72 0 0.0 0.0 0.00 0.00 0.00 89 1022.0
20260830154803 72 0 0.0 0.0 0.00 0.00 0.00 89 1022.0
20260830154703 72 0 0.0 0.0 0.00 0.00 0.00 89 1022.0
20260830154624 72 0 0.0 0.0 0.00 0.00 0.00 89 1022.0
20260830154503 72 0 0.0 0.0 0.00 0.00 0.00 89 1022.2
20260830154404 72 0 0.0 0.0 0.00 0.00 0.00 89 1022.0
20260830154303 72 0 0.0 0.0 0.00 0.00 0.00 89 1022.0
20260830154203 72 0 0.0 0.0 0.00 0.00 0.00 89 1022.1
20260830154104 72 0 0.0 0.0 0.00 0.00 0.00 89 1021.9
20260830154003 72 0 0.0 0.0 0.00 0.00 0.00 89 1022.0
20260830153903 72 0 0.0 0.0 0.00 0.00 0.00 89 1022.1
20260830153825 72 0 0.0 0.0 0.00 0.00 0.00 88 1021.8
20260830153704 72 0 0.0 0.0 0.00 0.00 0.00 88 1021.8
20260830153604 72 0 0.0 0.0 0.00 0.00 0.00 88 1021.9
20260830153525 72 0 0.0 0.0 0.00 0.00 0.00 88 1022.0
20260830153404 72 0 0.0 0.0 0.00 0.00 0.00 87 1022.0
20260830153304 72 123 0.0 1.0 0.00 0.00 0.00 87 1021.9
20260830153203 72 121 0.0 1.0 0.00 0.00 0.00 87 1022.0
20260830153103 72 123 0.0 1.0 0.00 0.00 0.00 86 1022.2
20260830153003 72 125 0.0 1.0 0.00 0.00 0.00 85 1021.9
20260830152903 72 124 0.0 1.0 0.00 0.00 0.00 85 1021.9
20260830152803 72 123 0.0 1.0 0.00 0.00 0.00 84 1021.9
20260830152703 72 123 0.0 1.0 0.00 0.00 0.00 84 1021.9
20260830152603 72 123 0.0 1.0 0.00 0.00 0.00 85 1021.9
20260830152503 72 123 0.0 1.0 0.00 0.00 0.00 86 1021.9
20260830152403 72 123 0.0 1.0 0.00 0.00 0.00 85 1021.8
20260830152305 72 123 0.0 1.0 0.00 0.00 0.00 85 1022.0
20260830152204 72 124 0.0 1.0 0.00 0.00 0.00 85 1021.7
20260830152103 71 123 0.0 1.0 0.00 0.00 0.00 85 1021.7
20260830152004 71 120 0.0 1.0 0.00 0.00 0.00 86 1021.7
20260830151903 71 119 0.0 1.0 0.00 0.00 0.00 86 1021.8
20260830151824 72 118 0.0 1.0 0.00 0.00 0.00 86 1021.8
20260830151704 72 0 0.0 0.0 0.00 0.00 0.00 86 1021.8
20260830151603 72 0 0.0 0.0 0.00 0.00 0.00 88 1021.7
20260830151524 72 0 0.0 0.0 0.00 0.00 0.00 88 1021.7
20260830151404 72 0 0.0 0.0 0.00 0.00 0.00 88 1021.7
20260830151303 72 0 0.0 0.0 0.00 0.00 0.00 89 1021.8
20260830151203 72 0 0.0 0.0 0.00 0.00 0.00 89 1021.8
20260830151103 72 0 0.0 0.0 0.00 0.00 0.00 89 1022.0
20260830151024 72 0 0.0 0.0 0.00 0.00 0.00 89 1021.7
20260830150904 72 0 0.0 0.0 0.00 0.00 0.00 89 1021.8
20260830150825 72 0 0.0 0.0 0.00 0.00 0.00 89 1021.8
20260830150703 72 0 0.0 0.0 0.00 0.00 0.00 89 1021.7
20260830150624 72 0 0.0 0.0 0.00 0.00 0.00 89 1021.6
20260830150503 72 0 0.0 0.0 0.00 0.00 0.00 89 1021.6
20260830150403 72 0 0.0 0.0 0.00 0.00 0.00 89 1021.6
20260830150303 72 0 0.0 0.0 0.00 0.00 0.00 89 1021.8
20260830150203 72 0 0.0 0.0 0.00 0.00 0.00 89 1021.6
20260830150004 72 0 0.0 0.0 0.00 0.00 0.00 88 1021.7
20260830145903 72 0 0.0 0.0 0.00 0.00 0.00 89 1021.4
20260830145804 72 0 0.0 0.0 0.00 0.00 0.00 89 1021.5
20260830145704 71 0 0.0 0.0 0.00 0.00 0.00 88 1021.7
20260830145603 71 0 0.0 0.0 0.00 0.00 0.00 88 1021.5
20260830145503 71 105 0.0 1.0 0.00 0.00 0.00 88 1021.7
20260830145403 71 105 0.0 1.0 0.00 0.00 0.00 88 1021.5
20260830145306 71 105 0.0 1.0 0.00 0.00 0.00 89 1021.7
20260830145203 71 85 0.0 2.0 0.00 0.00 0.00 89 1021.5
20260830145103 71 91 0.0 2.0 0.00 0.00 0.00 89 1021.4
20260830145003 71 93 0.0 2.0 0.00 0.00 0.00 89 1021.4
20260830144903 71 93 0.0 2.0 0.00 0.00 0.00 89 1021.5
20260830144825 71 93 0.0 2.0 0.00 0.00 0.00 89 1021.5
20260830144703 71 93 0.0 2.0 0.00 0.00 0.00 89 1021.3
20260830144603 71 93 0.0 2.0 0.00 0.00 0.00 89 1021.4
20260830144504 71 92 0.0 2.0 0.00 0.00 0.00 89 1021.5
20260830144403 71 92 0.0 2.0 0.00 0.00 0.00 89 1021.4
20260830144303 71 91 0.0 2.0 0.00 0.00 0.00 89 1021.4
20260830144204 71 101 0.0 2.0 0.00 0.00 0.00 89 1021.4
20260830144124 71 108 0.0 2.0 0.00 0.00 0.00 89 1021.2
20260830144003 71 0 0.0 0.0 0.00 0.00 0.00 89 1021.3
20260830143903 71 0 0.0 0.0 0.00 0.00 0.00 88 1021.3
20260830143803 71 0 0.0 0.0 0.00 0.00 0.00 89 1021.3
20260830143704 70 0 0.0 0.0 0.00 0.00 0.00 89 1021.1
20260830143603 70 0 0.0 0.0 0.00 0.00 0.00 89 1021.1
20260830143504 70 0 0.0 0.0 0.00 0.00 0.00 89 1021.2
20260830143403 70 0 0.0 0.0 0.00 0.00 0.00 89 1021.1
20260830143304 70 0 0.0 0.0 0.00 0.00 0.00 89 1021.4
20260830143225 70 0 0.0 0.0 0.00 0.00 0.00 90 1021.2
20260830143104 70 0 0.0 0.0 0.00 0.00 0.00 90 1021.3
20260830143024 70 0 0.0 0.0 0.00 0.00 0.00 90 1021.2
20260830142903 69 0 0.0 0.0 0.00 0.00 0.00 90 1021.2
20260830142803 69 0 0.0 0.0 0.00 0.00 0.00 91 1021.3
20260830142704 69 0 0.0 0.0 0.00 0.00 0.00 91 1021.2
20260830142603 69 0 0.0 0.0 0.00 0.00 0.00 91 1021.3
20260830142524 69 0 0.0 0.0 0.00 0.00 0.00 91 1021.2
20260830142404 69 0 0.0 0.0 0.00 0.00 0.00 91 1021.4
20260830142305 69 0 0.0 0.0 0.00 0.00 0.00 91 1021.5
20260830142203 69 0 0.0 0.0 0.00 0.00 0.00 91 1021.5
20260830142124 69 0 0.0 0.0 0.00 0.00 0.00 91 1021.3
20260830142003 69 0 0.0 0.0 0.00 0.00 0.00 91 1021.3
20260830141903 69 0 0.0 0.0 0.00 0.00 0.00 90 1021.2
20260830141803 69 0 0.0 0.0 0.00 0.00 0.00 90 1021.3
20260830141724 69 0 0.0 0.0 0.00 0.00 0.00 90 1021.4
20260830141603 69 0 0.0 0.0 0.00 0.00 0.00 90 1021.4
20260830141503 69 0 0.0 0.0 0.00 0.00 0.00 90 1021.3
20260830141404 69 0 0.0 0.0 0.00 0.00 0.00 89 1021.2
20260830141304 69 0 0.0 0.0 0.00 0.00 0.00 89 1021.3
20260830141203 69 0 0.0 0.0 0.00 0.00 0.00 88 1021.4
20260830141103 69 0 0.0 0.0 0.00 0.00 0.00 88 1021.4
20260830141004 69 0 0.0 0.0 0.00 0.00 0.00 88 1021.3
20260830140903 69 0 0.0 0.0 0.00 0.00 0.00 87 1021.3
20260830140803 69 0 0.0 0.0 0.00 0.00 0.00 87 1021.3
20260830140703 70 0 0.0 0.0 0.00 0.00 0.00 87 1021.3
20260830140603 70 0 0.0 0.0 0.00 0.00 0.00 86 1021.3
20260830140504 70 0 0.0 0.0 0.00 0.00 0.00 85 1021.3
20260830140425 70 0 0.0 0.0 0.00 0.00 0.00 85 1021.1
20260830140303 70 0 0.0 0.0 0.00 0.00 0.00 84 1021.2
20260830140204 70 0 0.0 0.0 0.00 0.00 0.00 82 1021.2
20260830140003 70 0 0.0 0.0 0.00 0.00 0.00 82 1021.0
20260830135925 70 0 0.0 0.0 0.00 0.00 0.00 81 1021.1
20260830135804 70 0 0.0 0.0 0.00 0.00 0.00 81 1021.1
20260830135704 70 0 0.0 0.0 0.00 0.00 0.00 81 1020.9
20260830135603 70 0 0.0 0.0 0.00 0.00 0.00 82 1020.9
20260830135503 70 0 0.0 0.0 0.00 0.00 0.00 80 1021.0
20260830135424 70 119 0.0 1.0 0.00 0.00 0.00 80 1020.9
20260830135306 70 138 0.0 2.0 0.00 0.00 0.00 81 1020.9
20260830135203 70 138 0.0 2.0 0.00 0.00 0.00 80 1020.9
20260830135103 70 138 0.0 2.0 0.00 0.00 0.00 81 1020.8
20260830135024 70 136 0.0 2.0 0.00 0.00 0.00 80 1020.8
20260830134903 70 132 0.0 2.0 0.00 0.00 0.00 81 1020.8
20260830134803 70 140 0.0 4.0 0.00 0.00 0.00 80 1020.8
20260830134704 71 140 0.0 4.0 0.00 0.00 0.00 80 1020.8
20260830134603 71 140 1.0 4.0 0.00 0.00 0.00 80 1020.8
20260830134503 71 140 1.0 4.0 0.00 0.00 0.00 80 1020.8
20260830134404 71 141 0.0 4.0 0.00 0.00 0.00 79 1020.7
20260830134303 71 138 0.0 4.0 0.00 0.00 0.00 80 1020.8
20260830134204 71 138 0.0 4.0 0.00 0.00 0.00 79 1020.7
20260830134103 71 136 1.0 4.0 0.00 0.00 0.00 79 1020.8
20260830134003 71 138 1.0 4.0 0.00 0.00 0.00 79 1020.7
20260830133903 71 136 1.0 4.0 0.00 0.00 0.00 78 1020.7
20260830133824 71 132 1.0 3.0 0.00 0.00 0.00 79 1020.6
20260830133703 71 131 1.0 3.0 0.00 0.00 0.00 79 1020.7
20260830133603 71 128 0.0 3.0 0.00 0.00 0.00 78 1020.7
20260830133503 71 128 0.0 3.0 0.00 0.00 0.00 79 1020.6
20260830133403 71 128 0.0 3.0 0.00 0.00 0.00 79 1020.5
20260830133303 71 128 0.0 3.0 0.00 0.00 0.00 79 1020.7
20260830133203 71 128 0.0 3.0 0.00 0.00 0.00 79 1020.5
20260830133103 71 132 1.0 3.0 0.00 0.00 0.00 78 1020.7
20260830133003 71 123 0.0 3.0 0.00 0.00 0.00 78 1020.3
20260830132905 71 128 1.0 3.0 0.00 0.00 0.00 79 1020.4
20260830132803 70 128 1.0 3.0 0.00 0.00 0.00 80 1020.4
20260830132703 70 127 1.0 3.0 0.00 0.00 0.00 80 1020.5
20260830132603 70 124 1.0 3.0 0.00 0.00 0.00 80 1020.6
20260830132503 70 127 1.0 3.0 0.00 0.00 0.00 79 1020.2
20260830132403 70 128 1.0 3.0 0.00 0.00 0.00 80 1020.5
20260830132305 70 128 1.0 3.0 0.00 0.00 0.00 79 1020.5
20260830132224 70 127 1.0 3.0 0.00 0.00 0.00 79 1020.5
20260830132103 70 125 1.0 3.0 0.00 0.00 0.00 80 1020.4
20260830132024 70 125 1.0 3.0 0.00 0.00 0.00 80 1020.5
20260830131904 69 124 1.0 3.0 0.00 0.00 0.00 80 1020.3
20260830131803 69 123 1.0 3.0 0.00 0.00 0.00 80 1020.3
20260830131703 69 122 1.0 3.0 0.00 0.00 0.00 80 1020.3
20260830131604 69 125 1.0 3.0 0.00 0.00 0.00 80 1020.4
20260830131524 69 120 1.0 3.0 0.00 0.00 0.00 80 1020.5
20260830131404 69 122 1.0 3.0 0.00 0.00 0.00 81 1020.4
20260830131304 69 120 1.0 4.0 0.00 0.00 0.00 81 1020.6
20260830131203 69 120 1.0 4.0 0.00 0.00 0.00 81 1020.5
20260830131103 69 120 1.0 4.0 0.00 0.00 0.00 81 1020.5
20260830131003 69 120 1.0 4.0 0.00 0.00 0.00 81 1020.6
20260830130903 69 119 1.0 4.0 0.00 0.00 0.00 81 1020.5
20260830130824 69 120 1.0 4.0 0.00 0.00 0.00 81 1020.4
20260830130704 69 120 1.0 4.0 0.00 0.00 0.00 81 1020.4
20260830130603 69 122 1.0 4.0 0.00 0.00 0.00 81 1020.4
20260830130504 69 123 1.0 4.0 0.00 0.00 0.00 81 1020.6
20260830130403 69 122 2.0 4.0 0.00 0.00 0.00 81 1020.4
20260830130303 69 123 1.0 4.0 0.00 0.00 0.00 81 1020.6
20260830130203 69 122 1.0 4.0 0.00 0.00 0.00 81 1020.3
20260830130005 69 124 1.0 4.0 0.00 0.00 0.00 81 1020.5
20260830125904 69 126 1.0 4.0 0.00 0.00 0.00 81 1020.3
20260830125803 69 124 1.0 4.0 0.00 0.00 0.00 81 1020.3
20260830125703 69 125 1.0 4.0 0.00 0.00 0.00 80 1020.5
20260830125603 69 122 1.0 4.0 0.00 0.00 0.00 81 1020.5
20260830125503 69 121 1.0 4.0 0.00 0.00 0.00 81 1020.6
20260830125403 69 120 1.0 4.0 0.00 0.00 0.00 81 1020.5
20260830125306 69 122 1.0 3.0 0.00 0.00 0.00 81 1020.4
20260830125203 69 123 1.0 3.0 0.00 0.00 0.00 81 1020.6
20260830125104 69 122 1.0 3.0 0.00 0.00 0.00 81 1020.7
20260830125004 69 119 1.0 3.0 0.00 0.00 0.00 81 1020.5
20260830124924 68 116 1.0 3.0 0.00 0.00 0.00 81 1020.5
20260830124803 68 115 1.0 3.0 0.00 0.00 0.00 81 1020.4
20260830124704 68 116 1.0 3.0 0.00 0.00 0.00 81 1020.5
20260830124603 68 119 1.0 3.0 0.00 0.00 0.00 81 1020.7
20260830124504 68 117 1.0 2.0 0.00 0.00 0.00 82 1020.7
20260830124403 68 118 1.0 3.0 0.00 0.00 0.00 81 1020.6
20260830124303 68 118 1.0 3.0 0.00 0.00 0.00 81 1020.7
20260830124203 68 116 1.0 3.0 0.00 0.00 0.00 81 1020.7
20260830124103 68 117 1.0 3.0 0.00 0.00 0.00 81 1020.8
20260830124003 68 120 1.0 3.0 0.00 0.00 0.00 81 1020.6
20260830123903 68 122 1.0 3.0 0.00 0.00 0.00 81 1020.5
20260830123804 68 123 1.0 3.0 0.00 0.00 0.00 81 1020.3
20260830123703 68 123 1.0 3.0 0.00 0.00 0.00 81 1020.4
20260830123603 68 122 1.0 3.0 0.00 0.00 0.00 81 1020.5
20260830123524 68 122 1.0 3.0 0.00 0.00 0.00 82 1020.5
20260830123403 68 123 1.0 3.0 0.00 0.00 0.00 82 1020.5
20260830123303 68 125 1.0 3.0 0.00 0.00 0.00 82 1020.5
20260830123203 68 125 1.0 4.0 0.00 0.00 0.00 82 1020.6
20260830123103 68 122 1.0 4.0 0.00 0.00 0.00 82 1020.5
20260830123003 68 123 1.0 4.0 0.00 0.00 0.00 81 1020.5
20260830122903 68 123 1.0 4.0 0.00 0.00 0.00 82 1020.6
20260830122804 68 121 1.0 4.0 0.00 0.00 0.00 81 1020.6
20260830122703 68 121 2.0 4.0 0.00 0.00 0.00 81 1020.5
20260830122603 68 122 2.0 4.0 0.00 0.00 0.00 81 1020.5
20260830122504 68 122 2.0 6.0 0.00 0.00 0.00 81 1020.6
20260830122403 68 123 2.0 6.0 0.00 0.00 0.00 81 1020.6
20260830122324 68 123 2.0 6.0 0.00 0.00 0.00 81 1020.6
20260830122204 68 124 2.0 6.0 0.00 0.00 0.00 81 1020.5
20260830122104 68 129 2.0 6.0 0.00 0.00 0.00 81 1020.5
20260830122003 68 129 2.0 6.0 0.00 0.00 0.00 81 1020.4
20260830121903 68 130 2.0 6.0 0.00 0.00 0.00 81 1020.5
20260830121825 68 129 2.0 6.0 0.00 0.00 0.00 81 1020.5
20260830121703 68 133 2.0 6.0 0.00 0.00 0.00 81 1020.5
20260830121603 68 134 1.0 6.0 0.00 0.00 0.00 81 1020.7
20260830121525 68 133 1.0 3.0 0.00 0.00 0.00 81 1020.5
20260830121424 68 132 1.0 3.0 0.00 0.00 0.00 81 1020.6
20260830121303 68 130 1.0 3.0 0.00 0.00 0.00 81 1020.5
20260830121204 68 130 1.0 3.0 0.00 0.00 0.00 81 1020.6
20260830121104 68 127 1.0 3.0 0.00 0.00 0.00 81 1020.5
20260830121004 68 123 1.0 3.0 0.00 0.00 0.00 81 1020.6
20260830120904 68 123 1.0 3.0 0.00 0.00 0.00 82 1020.4
20260830120803 68 123 1.0 3.0 0.00 0.00 0.00 81 1020.5
20260830120704 68 121 1.0 3.0 0.00 0.00 0.00 81 1020.6
20260830120603 68 119 1.0 3.0 0.00 0.00 0.00 81 1020.5
20260830120503 68 118 1.0 3.0 0.00 0.00 0.00 81 1020.6
20260830120404 68 124 1.0 4.0 0.00 0.00 0.00 81 1020.7
20260830120303 68 125 1.0 4.0 0.00 0.00 0.00 81 1020.4
20260830120203 68 124 1.0 4.0 0.00 0.00 0.00 82 1020.4
20260830120004 68 125 1.0 4.0 0.00 0.00 0.00 81 1020.7
20260830115904 68 123 1.0 4.0 0.00 0.00 0.00 82 1020.5
20260830115824 68 122 1.0 4.0 0.00 0.00 0.00 82 1020.5
20260830115704 68 122 1.0 4.0 0.00 0.00 0.00 82 1020.5
20260830115603 68 123 1.0 4.0 0.00 0.00 0.00 82 1020.5
20260830115503 68 125 1.0 4.0 0.00 0.00 0.00 81 1020.6
20260830115404 68 120 1.0 3.0 0.00 0.00 0.00 82 1020.5
20260830115306 68 123 1.0 4.0 0.00 0.00 0.00 82 1020.4
20260830115203 68 124 1.0 4.0 0.00 0.00 0.00 82 1020.5
20260830115103 68 128 1.0 4.0 0.00 0.00 0.00 81 1020.6
20260830115004 68 129 1.0 4.0 0.00 0.00 0.00 82 1020.4
20260830114924 68 129 1.0 4.0 0.00 0.00 0.00 82 1020.2
20260830114803 68 131 1.0 4.0 0.00 0.00 0.00 82 1020.4
20260830114703 68 133 1.0 4.0 0.00 0.00 0.00 82 1020.4
20260830114603 68 132 1.0 4.0 0.00 0.00 0.00 82 1020.5
20260830114504 68 133 1.0 4.0 0.00 0.00 0.00 81 1020.4
20260830114403 68 133 1.0 4.0 0.00 0.00 0.00 81 1020.3
20260830114304 68 130 1.0 4.0 0.00 0.00 0.00 82 1020.5
20260830114203 68 130 1.0 4.0 0.00 0.00 0.00 81 1020.3
20260830114104 68 128 1.0 4.0 0.00 0.00 0.00 81 1020.4
20260830114003 68 127 1.0 4.0 0.00 0.00 0.00 81 1020.3
20260830113903 68 126 1.0 4.0 0.00 0.00 0.00 82 1020.3
20260830113803 68 126 1.0 4.0 0.00 0.00 0.00 82 1020.4
20260830113703 68 125 1.0 4.0 0.00 0.00 0.00 81 1020.5
20260830113624 68 125 1.0 4.0 0.00 0.00 0.00 81 1020.3
20260830113524 68 125 1.0 4.0 0.00 0.00 0.00 81 1020.3
20260830113404 68 124 1.0 4.0 0.00 0.00 0.00 82 1020.4
20260830113303 68 127 1.0 4.0 0.00 0.00 0.00 82 1020.4
20260830113203 67 127 0.0 4.0 0.00 0.00 0.00 82 1020.2
20260830113103 67 123 0.0 4.0 0.00 0.00 0.00 82 1020.3
20260830113004 67 126 0.0 3.0 0.00 0.00 0.00 82 1020.3
20260830112925 67 120 0.0 1.0 0.00 0.00 0.00 83 1020.2
20260830112803 67 127 0.0 1.0 0.00 0.00 0.00 83 1020.4
20260830112704 67 124 0.0 1.0 0.00 0.00 0.00 83 1020.4
20260830112604 67 123 0.0 1.0 0.00 0.00 0.00 83 1020.3
20260830112503 67 123 0.0 1.0 0.00 0.00 0.00 83 1020.4
20260830112424 67 118 0.0 1.0 0.00 0.00 0.00 83 1020.3
20260830112306 67 126 0.0 1.0 0.00 0.00 0.00 83 1020.3
20260830112203 67 126 0.0 1.0 0.00 0.00 0.00 83 1020.2
20260830112104 67 126 0.0 1.0 0.00 0.00 0.00 83 1020.4
20260830112003 67 119 0.0 1.0 0.00 0.00 0.00 83 1020.4
20260830111903 67 118 0.0 3.0 0.00 0.00 0.00 83 1020.3
20260830111803 67 113 0.0 3.0 0.00 0.00 0.00 82 1020.3
20260830111725 67 113 0.0 3.0 0.00 0.00 0.00 82 1020.2
20260830111603 67 112 0.0 3.0 0.00 0.00 0.00 83 1020.4
20260830111504 67 116 1.0 3.0 0.00 0.00 0.00 83 1020.3
20260830111403 67 118 1.0 3.0 0.00 0.00 0.00 82 1020.4
20260830111324 67 122 1.0 3.0 0.00 0.00 0.00 82 1020.4
20260830111203 67 121 1.0 3.0 0.00 0.00 0.00 82 1020.3
20260830111104 67 121 1.0 3.0 0.00 0.00 0.00 82 1020.4
20260830111004 67 121 1.0 3.0 0.00 0.00 0.00 82 1020.5
20260830110903 67 123 0.0 3.0 0.00 0.00 0.00 82 1020.3
20260830110803 67 125 0.0 3.0 0.00 0.00 0.00 82 1020.5
20260830110703 67 131 0.0 2.0 0.00 0.00 0.00 83 1020.3
20260830110603 67 130 0.0 2.0 0.00 0.00 0.00 82 1020.5
20260830110503 67 132 0.0 2.0 0.00 0.00 0.00 82 1020.4
20260830110404 67 135 0.0 2.0 0.00 0.00 0.00 82 1020.3
20260830110324 67 126 0.0 2.0 0.00 0.00 0.00 82 1020.2
20260830110203 67 125 0.0 2.0 0.00 0.00 0.00 82 1020.3
20260830110104 67 124 0.0 3.0 0.00 0.00 0.00 82 1020.2
20260830110003 67 123 0.0 3.0 0.00 0.00 0.00 82 1020.3
20260830105904 67 123 0.0 3.0 0.00 0.00 0.00 82 1020.3
20260830105804 67 121 0.0 3.0 0.00 0.00 0.00 82 1020.2
20260830105703 67 123 1.0 3.0 0.00 0.00 0.00 81 1020.3
20260830105603 67 124 1.0 3.0 0.00 0.00 0.00 82 1020.2
20260830105525 67 121 1.0 3.0 0.00 0.00 0.00 82 1020.4
20260830105404 67 121 1.0 3.0 0.00 0.00 0.00 81 1020.5
20260830105305 67 120 1.0 3.0 0.00 0.00 0.00 82 1020.1
20260830105203 67 120 1.0 3.0 0.00 0.00 0.00 82 1020.3
20260830105103 67 120 1.0 3.0 0.00 0.00 0.00 82 1020.4
20260830105003 67 121 0.0 3.0 0.00 0.00 0.00 82 1020.4
20260830104903 67 121 0.0 3.0 0.00 0.00 0.00 82 1020.3
20260830104803 67 122 0.0 3.0 0.00 0.00 0.00 82 1020.3
20260830104725 67 119 0.0 2.0 0.00 0.00 0.00 82 1020.3
20260830104603 67 117 0.0 2.0 0.00 0.00 0.00 81 1020.3
20260830104524 67 116 0.0 2.0 0.00 0.00 0.00 81 1020.4
20260830104404 67 116 0.0 2.0 0.00 0.00 0.00 81 1020.3
20260830104324 67 115 0.0 2.0 0.00 0.00 0.00 81 1020.5
20260830104224 67 113 0.0 2.0 0.00 0.00 0.00 82 1020.6
20260830104104 68 113 0.0 2.0 0.00 0.00 0.00 82 1020.3
20260830104003 68 114 0.0 2.0 0.00 0.00 0.00 82 1020.3
20260830103904 68 114 0.0 2.0 0.00 0.00 0.00 81 1020.3
20260830103804 68 115 0.0 2.0 0.00 0.00 0.00 81 1020.3
20260830103704 67 115 0.0 2.0 0.00 0.00 0.00 81 1020.5
20260830103604 67 112 0.0 2.0 0.00 0.00 0.00 81 1020.3
20260830103504 68 114 0.0 1.0 0.00 0.00 0.00 81 1020.4
20260830103424 68 112 0.0 2.0 0.00 0.00 0.00 82 1020.4
20260830103304 68 112 0.0 2.0 0.00 0.00 0.00 81 1020.6
20260830103225 68 112 0.0 2.0 0.00 0.00 0.00 82 1020.5
20260830103124 68 114 0.0 2.0 0.00 0.00 0.00 81 1020.3
20260830103003 68 113 0.0 2.0 0.00 0.00 0.00 81 1020.5
20260830102904 68 117 0.0 2.0 0.00 0.00 0.00 81 1020.5
20260830102804 68 117 0.0 2.0 0.00 0.00 0.00 81 1020.6
20260830102704 68 117 0.0 2.0 0.00 0.00 0.00 81 1020.5
20260830102603 68 118 1.0 2.0 0.00 0.00 0.00 81 1020.4
20260830102503 68 118 1.0 2.0 0.00 0.00 0.00 81 1020.7
20260830102403 68 119 1.0 2.0 0.00 0.00 0.00 80 1020.5
20260830102306 68 118 1.0 2.0 0.00 0.00 0.00 80 1020.6
20260830102204 68 118 1.0 2.0 0.00 0.00 0.00 80 1020.7
20260830102103 68 117 1.0 2.0 0.00 0.00 0.00 80 1020.5
20260830102024 68 117 1.0 2.0 0.00 0.00 0.00 80 1020.6
20260830101904 68 118 1.0 3.0 0.00 0.00 0.00 80 1020.7
20260830101803 68 119 1.0 3.0 0.00 0.00 0.00 81 1020.2
20260830101704 68 119 1.0 3.0 0.00 0.00 0.00 81 1020.6
20260830101625 68 118 1.0 3.0 0.00 0.00 0.00 81 1020.4
20260830101525 68 117 1.0 3.0 0.00 0.00 0.00 81 1020.4
20260830101403 68 117 1.0 3.0 0.00 0.00 0.00 80 1020.6
20260830101303 68 118 1.0 3.0 0.00 0.00 0.00 81 1020.6
20260830101203 68 118 1.0 3.0 0.00 0.00 0.00 80 1020.4
20260830101104 68 119 1.0 3.0 0.00 0.00 0.00 80 1020.7
20260830101004 68 120 1.0 3.0 0.00 0.00 0.00 80 1020.5
20260830100904 68 116 1.0 3.0 0.00 0.00 0.00 80 1020.6
20260830100804 68 115 0.0 2.0 0.00 0.00 0.00 81 1020.6
20260830100703 68 115 0.0 2.0 0.00 0.00 0.00 81 1020.7
20260830100603 68 120 0.0 4.0 0.00 0.00 0.00 81 1020.6
20260830100504 68 119 1.0 4.0 0.00 0.00 0.00 81 1020.6
20260830100424 68 123 1.0 4.0 0.00 0.00 0.00 81 1020.5
20260830100303 68 122 1.0 4.0 0.00 0.00 0.00 81 1020.6
20260830100204 68 122 1.0 4.0 0.00 0.00 0.00 81 1020.6
20260830100125 68 121 1.0 4.0 0.00 0.00 0.00 81 1020.6
20260830100024 68 121 1.0 4.0 0.00 0.00 0.00 81 1020.6
20260830095903 68 122 1.0 4.0 0.00 0.00 0.00 81 1020.6
20260830095803 68 120 1.0 4.0 0.00 0.00 0.00 81 1020.6
20260830095703 68 121 1.0 4.0 0.00 0.00 0.00 80 1020.7
20260830095604 68 119 1.0 4.0 0.00 0.00 0.00 81 1020.6
20260830095504 68 120 1.0 4.0 0.00 0.00 0.00 81 1020.6
20260830095403 68 120 1.0 3.0 0.00 0.00 0.00 81 1020.6
20260830095305 68 119 1.0 3.0 0.00 0.00 0.00 81 1020.5
20260830095203 68 120 1.0 3.0 0.00 0.00 0.00 81 1020.4
20260830095103 68 121 1.0 3.0 0.00 0.00 0.00 81 1020.6
20260830095003 68 121 1.0 3.0 0.00 0.00 0.00 81 1020.5